Darstellungsparameter: Aktuell verwendete Einstellungen:
Skalierung der Graphiken ... ?
xyx+y,   Skalierungsfaktor:      Skalierung: Modus: x, Faktor: 1
Darstellungszeitraum ... ?
Vom - - bis: - -   Zeitraum: 02.01.2017 - 01.01.2020
Min/Max/Avg-Anzeige ... ?
Zeige MMA aktuell
Zeige MMA Monat
Zeige MMA alles
Zeige --A aktuell
Zeige --A Monat
Zeige --A alles
Keine MMA-Anzeige
MMA:
Average (ber die Originaldaten)
MMA-Basis: 02.01.2017 - 01.01.2020
Quicknavigation für Darstellung... ?
Tage:      1T, 2T, 3T, 5T -1T -2T -3T -5T +1T +2T +3T +5T
Wochen: 1W, 2W, 3W -1W -2W -3W +1W +2W +3W
Monate: 1M, 3M, 6M -1M -3M -6M +1M +3M +6M
Jahre:    1J, 3J, 5J, 10J -1J -3J -5J -10J +1J +3J +5J +10J
Nutze für die Darstellung ... ?
Originaldaten oder ...
Mittelwerte Minima Maxima auf...
Stundenbasis Tagesbasis Wochenbasis
Monatsbasis Jahresbasis      Datenbasis: Mittelwerte auf Tagesbasis
Darstellen als:
Statistik (Auto) Statistik J:M      Darstellung:
Zur Graphik,    zurück zur Übersicht aller Sensoren.
 
Tabellarische Datenbersicht: ?
 
Sensor: Nr:Datum:Temp:Feuchte:
Aussen-T/F 1 02-01-2017 00:00:00 -0.26417 C 43.1250 %
2 03-01-2017 00:00:00 0.27717 C 59.5652 %
3 04-01-2017 00:00:00 2.4725 C 33.8417 %
4 05-01-2017 00:00:00 -1.62667 C 32.9833 %
5 06-01-2017 00:00:00 -8.04417 C 33.4250 %
6 07-01-2017 00:00:00 -5.00833 C 28.8833 %
7 08-01-2017 00:00:00 -0.27333 C 48.8667 %
8 09-01-2017 00:00:00 1.305 C 49.9167 %
9 10-01-2017 00:00:00 0.33833 C 54.5917 %
10 11-01-2017 00:00:00 2.7675 C 49.3083 %
11 12-01-2017 00:00:00 3.39 C 26.6583 %
12 13-01-2017 00:00:00 1.16833 C 32.4417 %
13 14-01-2017 00:00:00 1.5625 C 26.2083 %
14 15-01-2017 00:00:00 -0.2875 C 38.9417 %
15 16-01-2017 00:00:00 -2.95333 C 40.8917 %
16 17-01-2017 00:00:00 -5.14333 C 33.6917 %
17 18-01-2017 00:00:00 -7.12917 C 33.7333 %
18 19-01-2017 00:00:00 -8.02917 C 34.5500 %
19 20-01-2017 00:00:00 -8.47167 C 31.5833 %
20 21-01-2017 00:00:00 -7.91167 C 34.8083 %
21 22-01-2017 00:00:00 -9.46417 C 33.6583 %
22 23-01-2017 00:00:00 -6.45667 C 35.5667 %
23 24-01-2017 00:00:00 -1.59917 C 36.1417 %
24 25-01-2017 00:00:00 -2.06134 C 21.1008 %
25 26-01-2017 00:00:00 -3.27167 C 23.9917 %
Sensor: Nr:Datum:Temp:Feuchte:
Aussen-T/F 26 27-01-2017 00:00:00 -4.87833 C 33.7583 %
27 28-01-2017 00:00:00 -3.13417 C 35.4000 %
28 29-01-2017 00:00:00 1.74917 C 38.4417 %
29 30-01-2017 00:00:00 3.64583 C 50.8083 %
30 31-01-2017 00:00:00 2.45083 C 33.8167 %
31 01-02-2017 00:00:00 2.82417 C 29.1583 %
32 02-02-2017 00:00:00 3.84417 C 50.3250 %
33 03-02-2017 00:00:00 4.79833 C 53.5417 %
34 04-02-2017 00:00:00 4.85833 C 34.5500 %
35 05-02-2017 00:00:00 3.81333 C 37.2333 %
36 06-02-2017 00:00:00 2.905 C 39.3000 %
37 07-02-2017 00:00:00 3.68333 C 32.7000 %
38 08-02-2017 00:00:00 2.47583 C 26.7500 %
39 09-02-2017 00:00:00 -0.87083 C 28.4083 %
40 10-02-2017 00:00:00 0.07583 C 21.2250 %
41 11-02-2017 00:00:00 1.1675 C 39.9583 %
42 12-02-2017 00:00:00 1.77167 C 49.6917 %
43 13-02-2017 00:00:00 2.44917 C 24.7083 %
44 14-02-2017 00:00:00 0.02083 C 31.7250 %
45 15-02-2017 00:00:00 0.65333 C 38.4083 %
46 16-02-2017 00:00:00 2.98583 C 54.9000 %
47 17-02-2017 00:00:00 5.05167 C 53.0917 %
48 18-02-2017 00:00:00 5.56917 C 38.1000 %
49 19-02-2017 00:00:00 2.74417 C 39.9417 %
50 20-02-2017 00:00:00 7.83667 C 30.5667 %
Sensor: Nr:Datum:Temp:Feuchte:
Aussen-T/F 51 21-02-2017 00:00:00 9.77417 C 33.2917 %
52 22-02-2017 00:00:00 10.86167 C 22.7083 %
53 23-02-2017 00:00:00 8.95167 C 22.1250 %
54 24-02-2017 00:00:00 4.4525 C 26.0917 %
55 25-02-2017 00:00:00 3.06333 C 34.4667 %
56 26-02-2017 00:00:00 8.2025 C 22.5667 %
57 27-02-2017 00:00:00 10.56417 C 22.7417 %
58 28-02-2017 00:00:00 5.03667 C 25.5167 %
59 01-03-2017 00:00:00 6.07333 C 27.2250 %
60 02-03-2017 00:00:00 7.615 C 21.8417 %
61 03-03-2017 00:00:00 5.64417 C 27.7417 %
62 04-03-2017 00:00:00 10.41667 C 24.1750 %
63 05-03-2017 00:00:00 6.48667 C 29.1917 %
64 06-03-2017 00:00:00 5.80083 C 30.7583 %
65 07-03-2017 00:00:00 5.375 C 37.1500 %
66 08-03-2017 00:00:00 4.1425 C 57.5333 %
67 09-03-2017 00:00:00 10.71 C 40.6917 %
68 10-03-2017 00:00:00 7.1775 C 21.1917 %
69 11-03-2017 00:00:00 5.8775 C 29.0333 %
70 12-03-2017 00:00:00 5.82167 C 27.9833 %
71 13-03-2017 00:00:00 5.775 C 26.7667 %
72 14-03-2017 00:00:00 8.80333 C 26.7000 %
73 15-03-2017 00:00:00 10.8 C 22.7333 %
74 16-03-2017 00:00:00 7.71667 C 32.6833 %
75 17-03-2017 00:00:00 8.33917 C 22.4167 %
Sensor: Nr:Datum:Temp:Feuchte:
Aussen-T/F 76 18-03-2017 00:00:00 8.97583 C 28.3167 %
77 19-03-2017 00:00:00 12.0025 C 29.0167 %
78 20-03-2017 00:00:00 11.53917 C 20.0000 %
79 21-03-2017 00:00:00 8.86 C 25.1667 %
80 22-03-2017 00:00:00 5.1675 C 32.8583 %
81 23-03-2017 00:00:00 8.915 C 31.3000 %
82 24-03-2017 00:00:00 9.54583 C 23.0250 %
83 25-03-2017 00:00:00 9.54417 C 26.8417 %
84 26-03-2017 00:00:00 9.08696 C 20.0000 %
85 27-03-2017 00:00:00 8.34583 C 26.6083 %
86 28-03-2017 00:00:00 9.97417 C 22.6583 %
87 29-03-2017 00:00:00 12.77833 C 22.9417 %
88 30-03-2017 00:00:00 14.22417 C 22.9833 %
89 31-03-2017 00:00:00 13.35333 C 29.3000 %
90 01-04-2017 00:00:00 13.83417 C 20.9000 %
91 02-04-2017 00:00:00 11.94167 C 24.9167 %
92 03-04-2017 00:00:00 10.62 C 26.7750 %
93 04-04-2017 00:00:00 9.20333 C 28.3417 %
94 05-04-2017 00:00:00 8.82333 C 22.4667 %
95 06-04-2017 00:00:00 9.21083 C 20.3667 %
96 07-04-2017 00:00:00 10.40583 C 23.0667 %
97 08-04-2017 00:00:00 13.42167 C 20.0917 %
98 09-04-2017 00:00:00 12.59 C 28.2250 %
99 10-04-2017 00:00:00 10.98833 C 23.4333 %
100 11-04-2017 00:00:00 10.6675 C 20.0000 %
Sensor: Nr:Datum:Temp:Feuchte:
Aussen-T/F 101 12-04-2017 00:00:00 11.54667 C 20.0083 %
102 13-04-2017 00:00:00 12.27417 C 20.7667 %
103 14-04-2017 00:00:00 10.30417 C 22.3083 %
104 15-04-2017 00:00:00 8.6675 C 21.4500 %
105 16-04-2017 00:00:00 7.34417 C 23.7417 %
106 17-04-2017 00:00:00 6.805 C 28.0667 %
107 18-04-2017 00:00:00 5.69667 C 20.6333 %
108 19-04-2017 00:00:00 4.65667 C 28.3500 %
109 20-04-2017 00:00:00 6.6825 C 23.4667 %
110 21-04-2017 00:00:00 8.16917 C 22.1500 %
111 22-04-2017 00:00:00 9.88 C 20.0000 %
112 23-04-2017 00:00:00 7.65 C 20.5333 %
113 24-04-2017 00:00:00 6.5875 C 27.3250 %
114 25-04-2017 00:00:00 7.13193 C 20.0000 %
115 26-04-2017 00:00:00 7.62583 C 20.1500 %
116 27-04-2017 00:00:00 7.74917 C 23.9083 %
117 28-04-2017 00:00:00 6.26083 C 27.3167 %
118 29-04-2017 00:00:00 9.68667 C 30.5750 %
119 30-04-2017 00:00:00 11.3975 C 20.0000 %
120 01-05-2017 00:00:00 9.75083 C 27.4250 %
121 02-05-2017 00:00:00 8.5825 C 45.3500 %
122 03-05-2017 00:00:00 10.7175 C 39.5000 %
123 04-05-2017 00:00:00 11.94833 C 30.7750 %
124 05-05-2017 00:00:00 12.685 C 23.2667 %
125 06-05-2017 00:00:00 13.30333 C 33.1667 %
Sensor: Nr:Datum:Temp:Feuchte:
Aussen-T/F 126 07-05-2017 00:00:00 12.8375 C 37.3083 %
127 08-05-2017 00:00:00 9.69083 C 26.5500 %
128 09-05-2017 00:00:00 11.87667 C 24.9000 %
129 10-05-2017 00:00:00 11.33833 C 26.9167 %
130 11-05-2017 00:00:00 14.63833 C 25.1750 %
131 12-05-2017 00:00:00 16.395 C 30.7500 %
132 13-05-2017 00:00:00 18.05917 C 28.5167 %
133 14-05-2017 00:00:00 16.575 C 24.9333 %
134 15-05-2017 00:00:00 16.65 C 33.9583 %
135 16-05-2017 00:00:00 20.58167 C 20.0000 %
136 17-05-2017 00:00:00 21.33 C 20.8417 %
137 18-05-2017 00:00:00 18.02917 C 26.7583 %
138 19-05-2017 00:00:00 13.17667 C 46.5833 %
139 20-05-2017 00:00:00 12.655 C 37.4083 %
140 21-05-2017 00:00:00 14.64917 C 29.2750 %
141 22-05-2017 00:00:00 17.3675 C 27.8667 %
142 23-05-2017 00:00:00 19.65167 C 23.7417 %
143 24-05-2017 00:00:00 17.405 C 20.4000 %
144 25-05-2017 00:00:00 20.29 C 21.8917 %
145 26-05-2017 00:00:00 19.73833 C 24.5250 %
146 27-05-2017 00:00:00 22.6075 C 24.8667 %
147 28-05-2017 00:00:00 21.81583 C 24.8250 %
148 29-05-2017 00:00:00 24.57833 C 34.4500 %
149 30-05-2017 00:00:00 22.94833 C 21.0500 %
150 31-05-2017 00:00:00 20.15917 C 21.0333 %
Sensor: Nr:Datum:Temp:Feuchte:
Aussen-T/F 151 01-06-2017 00:00:00 20.24833 C 23.6500 %
152 02-06-2017 00:00:00 19.48083 C 25.5083 %
153 03-06-2017 00:00:00 19.46417 C 36.0000 %
154 04-06-2017 00:00:00 16.96583 C 37.9333 %
155 05-06-2017 00:00:00 17.975 C 34.7083 %
156 06-06-2017 00:00:00 16.04667 C 23.7250 %
157 07-06-2017 00:00:00 14.48333 C 20.5500 %
158 08-06-2017 00:00:00 19.25 C 21.2917 %
159 09-06-2017 00:00:00 18.0925 C 23.5250 %
160 10-06-2017 00:00:00 19.44 C 25.5417 %
161 11-06-2017 00:00:00 21.575 C 23.5750 %
162 12-06-2017 00:00:00 22.1675 C 20.1333 %
163 13-06-2017 00:00:00 19.81833 C 20.2667 %
164 14-06-2017 00:00:00 20.985 C 24.1917 %
165 15-06-2017 00:00:00 22.28333 C 21.9500 %
166 16-06-2017 00:00:00 20.18667 C 20.0000 %
167 17-06-2017 00:00:00 18.07917 C 20.4667 %
168 18-06-2017 00:00:00 23.58667 C 21.1333 %
169 19-06-2017 00:00:00 24.0825 C 23.3000 %
170 20-06-2017 00:00:00 25.57083 C 21.0333 %
171 21-06-2017 00:00:00 27.36167 C 20.0000 %
172 22-06-2017 00:00:00 24.04083 C 25.6833 %
173 23-06-2017 00:00:00 23.645 C 21.6583 %
174 24-06-2017 00:00:00 21.56417 C 21.1667 %
175 25-06-2017 00:00:00 20.95 C 20.0000 %
Sensor: Nr:Datum:Temp:Feuchte:
Aussen-T/F 176 26-06-2017 00:00:00 23.18333 C 20.0000 %
177 27-06-2017 00:00:00 19.20417 C 25.8000 %
178 28-06-2017 00:00:00 20.19167 C 37.8250 %
179 29-06-2017 00:00:00 18.5125 C 27.5083 %
180 30-06-2017 00:00:00 18.34833 C 22.5167 %
181 01-07-2017 00:00:00 16.22083 C 30.4250 %
182 02-07-2017 00:00:00 16.92 C 32.0250 %
183 03-07-2017 00:00:00 18.83333 C 27.3833 %
184 04-07-2017 00:00:00 21.9375 C 21.4833 %
185 05-07-2017 00:00:00 23.425 C 23.6833 %
186 06-07-2017 00:00:00 22.78417 C 24.7917 %
187 07-07-2017 00:00:00 24.54667 C 34.9667 %
188 08-07-2017 00:00:00 24.04167 C 22.1750 %
189 09-07-2017 00:00:00 23.87667 C 21.6750 %
190 10-07-2017 00:00:00 19.995 C 36.4250 %
191 11-07-2017 00:00:00 19.97417 C 25.9167 %
192 12-07-2017 00:00:00 17.8025 C 27.7583 %
193 13-07-2017 00:00:00 17.10583 C 27.2083 %
194 14-07-2017 00:00:00 16.94333 C 24.9917 %
195 15-07-2017 00:00:00 17.56583 C 24.2833 %
196 16-07-2017 00:00:00 19.83833 C 21.7500 %
197 17-07-2017 00:00:00 22.11583 C 25.7917 %
198 18-07-2017 00:00:00 23.18917 C 26.1500 %
199 19-07-2017 00:00:00 24.29083 C 22.7083 %
200 20-07-2017 00:00:00 22.56083 C 28.0583 %
Sensor: Nr:Datum:Temp:Feuchte:
Aussen-T/F 201 21-07-2017 00:00:00 21.25917 C 21.7417 %
202 22-07-2017 00:00:00 22.86083 C 31.7667 %
203 23-07-2017 00:00:00 19.16417 C 32.9917 %
204 24-07-2017 00:00:00 15.17 C 34.9083 %
205 25-07-2017 00:00:00 14.17917 C 53.8250 %
206 26-07-2017 00:00:00 17.7925 C 34.8833 %
207 27-07-2017 00:00:00 19.165 C 34.9917 %
208 28-07-2017 00:00:00 17.4625 C 30.7500 %
209 29-07-2017 00:00:00 20.93333 C 25.8500 %
210 30-07-2017 00:00:00 23.44917 C 24.9833 %
211 31-07-2017 00:00:00 21.3325 C 25.8250 %
212 01-08-2017 00:00:00 20.18333 C 47.5000 %
213 02-08-2017 00:00:00 22.01833 C 35.3417 %
214 03-08-2017 00:00:00 21.82833 C 28.1250 %
215 04-08-2017 00:00:00 21.0775 C 24.1917 %
216 05-08-2017 00:00:00 19.94833 C 23.8417 %
217 06-08-2017 00:00:00 18.32583 C 25.1000 %
218 07-08-2017 00:00:00 17.93417 C 26.7083 %
219 08-08-2017 00:00:00 17.9375 C 27.5583 %
220 09-08-2017 00:00:00 18.1525 C 23.5583 %
221 10-08-2017 00:00:00 15.35 C 47.5833 %
222 11-08-2017 00:00:00 14.705 C 51.5167 %
223 12-08-2017 00:00:00 15.305 C 40.2750 %
224 13-08-2017 00:00:00 18.60917 C 28.7333 %
225 14-08-2017 00:00:00 18.56167 C 33.7917 %
Sensor: Nr:Datum:Temp:Feuchte:
Aussen-T/F 226 15-08-2017 00:00:00 18.83833 C 38.5333 %
227 16-08-2017 00:00:00 19.97167 C 37.3917 %
228 17-08-2017 00:00:00 19.57167 C 33.3667 %
229 18-08-2017 00:00:00 18.17417 C 43.5167 %
230 19-08-2017 00:00:00 14.47417 C 43.3667 %
231 20-08-2017 00:00:00 14.925 C 30.8417 %
232 21-08-2017 00:00:00 16.3575 C 28.8917 %
233 22-08-2017 00:00:00 16.08833 C 31.8500 %
234 23-08-2017 00:00:00 17.92583 C 30.8917 %
235 24-08-2017 00:00:00 19.9075 C 26.1917 %
236 25-08-2017 00:00:00 18.30833 C 37.3750 %
237 26-08-2017 00:00:00 20.88833 C 44.3167 %
238 27-08-2017 00:00:00 19.63083 C 34.5250 %
239 28-08-2017 00:00:00 19.4775 C 30.1667 %
240 29-08-2017 00:00:00 20.03667 C 34.9500 %
241 30-08-2017 00:00:00 20.91167 C 31.6750 %
242 31-08-2017 00:00:00 17.32857 C 27.5210 %
243 01-09-2017 00:00:00 14.1 C 34.5083 %
244 02-09-2017 00:00:00 14.51417 C 34.0667 %
245 03-09-2017 00:00:00 12.90417 C 31.6750 %
246 04-09-2017 00:00:00 13.94167 C 34.8750 %
247 05-09-2017 00:00:00 17.87 C 36.6833 %
248 06-09-2017 00:00:00 17.47083 C 25.8083 %
249 07-09-2017 00:00:00 15.90083 C 21.1083 %
250 08-09-2017 00:00:00 15.99583 C 20.6583 %
Sensor: Nr:Datum:Temp:Feuchte:
Aussen-T/F 251 09-09-2017 00:00:00 14.54 C 39.9417 %
252 10-09-2017 00:00:00 13.27583 C 43.1833 %
253 11-09-2017 00:00:00 14.27083 C 26.4083 %
254 12-09-2017 00:00:00 14.32583 C 26.1417 %
255 13-09-2017 00:00:00 13.965 C 38.8333 %
256 14-09-2017 00:00:00 11.75417 C 39.2750 %
257 15-09-2017 00:00:00 12.5175 C 33.8750 %
258 16-09-2017 00:00:00 10.11333 C 40.9500 %
259 17-09-2017 00:00:00 9.67 C 51.4833 %
260 18-09-2017 00:00:00 10.46 C 46.2417 %
261 19-09-2017 00:00:00 11.76 C 32.8500 %
262 20-09-2017 00:00:00 11.29583 C 42.5167 %
263 21-09-2017 00:00:00 10.49 C 44.7417 %
264 22-09-2017 00:00:00 11.12417 C 43.8917 %
265 23-09-2017 00:00:00 13.495 C 40.1917 %
266 24-09-2017 00:00:00 12.475 C 44.1417 %
267 25-09-2017 00:00:00 12.56583 C 44.0250 %
268 26-09-2017 00:00:00 13.27167 C 41.8333 %
269 27-09-2017 00:00:00 13.05083 C 43.9333 %
270 28-09-2017 00:00:00 14.64667 C 44.6000 %
271 29-09-2017 00:00:00 17.38667 C 38.5083 %
272 30-09-2017 00:00:00 14.205 C 48.5667 %
273 01-10-2017 00:00:00 10.23667 C 56.3000 %
274 02-10-2017 00:00:00 13.38833 C 43.6167 %
275 03-10-2017 00:00:00 12.20667 C 42.3667 %
Sensor: Nr:Datum:Temp:Feuchte:
Aussen-T/F 276 04-10-2017 00:00:00 11.05583 C 31.0333 %
277 05-10-2017 00:00:00 12.92833 C 21.9667 %
278 06-10-2017 00:00:00 9.4 C 33.6250 %
279 07-10-2017 00:00:00 9.55083 C 31.6583 %
280 08-10-2017 00:00:00 11.81833 C 41.5417 %
281 09-10-2017 00:00:00 10.9925 C 47.1583 %
282 10-10-2017 00:00:00 12.88917 C 31.8167 %
283 11-10-2017 00:00:00 13.19167 C 31.2083 %
284 12-10-2017 00:00:00 13.13667 C 36.6500 %
285 13-10-2017 00:00:00 13.9275 C 38.7583 %
286 14-10-2017 00:00:00 12.47167 C 50.0167 %
287 15-10-2017 00:00:00 11.94833 C 54.6750 %
288 16-10-2017 00:00:00 12.63333 C 51.4833 %
289 17-10-2017 00:00:00 12.20667 C 52.4250 %
290 18-10-2017 00:00:00 11.85333 C 50.4167 %
291 19-10-2017 00:00:00 11.0025 C 50.7750 %
292 20-10-2017 00:00:00 11.63697 C 37.7479 %
293 21-10-2017 00:00:00 11.28083 C 38.1917 %
294 22-10-2017 00:00:00 10.28417 C 24.4167 %
295 23-10-2017 00:00:00 10.42417 C 23.7667 %
296 24-10-2017 00:00:00 12.76333 C 33.7917 %
297 25-10-2017 00:00:00 15.1425 C 27.6500 %
298 26-10-2017 00:00:00 13.17917 C 29.2667 %
299 27-10-2017 00:00:00 10.80833 C 33.6167 %
300 28-10-2017 00:00:00 10.09833 C 24.5250 %
Sensor: Nr:Datum:Temp:Feuchte:
Aussen-T/F 301 29-10-2017 00:00:00 10.1184 C 26.6160 %
302 30-10-2017 00:00:00 6.43917 C 30.2667 %
303 31-10-2017 00:00:00 7.06917 C 27.1250 %
304 01-11-2017 00:00:00 7.99917 C 24.8000 %
305 02-11-2017 00:00:00 7.76917 C 32.9583 %
306 03-11-2017 00:00:00 6.735 C 45.5833 %
307 04-11-2017 00:00:00 7.89167 C 53.2917 %
308 05-11-2017 00:00:00 8.26167 C 46.6500 %
309 06-11-2017 00:00:00 5.14 C 33.5917 %
310 07-11-2017 00:00:00 4.24333 C 45.0833 %
311 08-11-2017 00:00:00 6.0575 C 55.0333 %
312 09-11-2017 00:00:00 7.38917 C 46.1583 %
313 10-11-2017 00:00:00 6.65917 C 26.9667 %
314 11-11-2017 00:00:00 5.63583 C 40.7000 %
315 12-11-2017 00:00:00 3.91583 C 58.4500 %
316 13-11-2017 00:00:00 4.73833 C 41.6917 %
317 14-11-2017 00:00:00 3.73417 C 47.8500 %
318 15-11-2017 00:00:00 6.5375 C 27.1083 %
319 16-11-2017 00:00:00 4.27833 C 39.8500 %
320 17-11-2017 00:00:00 5.2975 C 48.8250 %
321 18-11-2017 00:00:00 2.87083 C 39.8833 %
322 19-11-2017 00:00:00 4.78583 C 32.4167 %
323 20-11-2017 00:00:00 4.46917 C 31.8667 %
324 21-11-2017 00:00:00 8.65667 C 28.5833 %
325 22-11-2017 00:00:00 7.285 C 30.5250 %
Sensor: Nr:Datum:Temp:Feuchte:
Aussen-T/F 326 23-11-2017 00:00:00 8.5175 C 46.0583 %
327 24-11-2017 00:00:00 9.68 C 41.3083 %
328 25-11-2017 00:00:00 4.5475 C 53.6583 %
329 26-11-2017 00:00:00 2.92583 C 28.8917 %
330 27-11-2017 00:00:00 4.8625 C 21.2917 %
331 28-11-2017 00:00:00 3.22667 C 51.1000 %
332 29-11-2017 00:00:00 2.265 C 55.6667 %
333 30-11-2017 00:00:00 1.60417 C 52.1417 %
334 01-12-2017 00:00:00 -0.2175 C 65.1167 %
335 02-12-2017 00:00:00 0.44833 C 41.3833 %
336 03-12-2017 00:00:00 -0.00667 C 31.2250 %
337 04-12-2017 00:00:00 2.29 C 46.3167 %
338 05-12-2017 00:00:00 3.6025 C 38.3333 %
339 06-12-2017 00:00:00 5.19833 C 24.6583 %
340 07-12-2017 00:00:00 4.21333 C 22.9083 %
341 08-12-2017 00:00:00 2.61083 C 31.9250 %
342 09-12-2017 00:00:00 0.24417 C 20.0083 %
343 10-12-2017 00:00:00 1.39167 C 28.5667 %
344 11-12-2017 00:00:00 4.91083 C 48.9333 %
345 12-12-2017 00:00:00 2.8125 C 21.0417 %
346 13-12-2017 00:00:00 2.70083 C 32.0833 %
347 14-12-2017 00:00:00 3.58417 C 33.7083 %
348 15-12-2017 00:00:00 2.05167 C 59.1500 %
349 16-12-2017 00:00:00 2.14667 C 54.8167 %
350 17-12-2017 00:00:00 2.22583 C 28.7000 %
Sensor: Nr:Datum:Temp:Feuchte:
Aussen-T/F 351 18-12-2017 00:00:00 0.71333 C 56.1333 %
352 19-12-2017 00:00:00 2.67 C 67.9667 %
353 20-12-2017 00:00:00 4.95083 C 67.4833 %
354 21-12-2017 00:00:00 6.82667 C 61.0083 %
355 22-12-2017 00:00:00 8.10417 C 67.4917 %
356 23-12-2017 00:00:00 8.1975 C 39.8417 %
357 24-12-2017 00:00:00 8.37583 C 20.1083 %
358 25-12-2017 00:00:00 6.34167 C 20.0583 %
359 26-12-2017 00:00:00 3.55917 C 38.0083 %
360 27-12-2017 00:00:00 4.2 C 40.9333 %
361 28-12-2017 00:00:00 2.28083 C 30.6667 %
362 29-12-2017 00:00:00 1.6 C 29.8333 %
363 30-12-2017 00:00:00 6.22583 C 44.3250 %
364 31-12-2017 00:00:00 12.09667 C 23.3583 %
365 01-01-2018 00:00:00 7.035 C 28.9500 %
366 02-01-2018 00:00:00 5.395 C 28.4083 %
367 03-01-2018 00:00:00 7.40667 C 26.8250 %
368 04-01-2018 00:00:00 7.375 C 35.2167 %
369 05-01-2018 00:00:00 7.45583 C 34.5250 %
370 06-01-2018 00:00:00 5.4075 C 71.1333 %
371 07-01-2018 00:00:00 4.365 C 39.4167 %
372 08-01-2018 00:00:00 3.86417 C 21.1167 %
373 09-01-2018 00:00:00 4.01083 C 35.8167 %
374 10-01-2018 00:00:00 5.88833 C 39.9000 %
375 11-01-2018 00:00:00 6.29167 C 52.8750 %
Sensor: Nr:Datum:Temp:Feuchte:
Aussen-T/F 376 12-01-2018 00:00:00 5.70083 C 50.0167 %
377 13-01-2018 00:00:00 4.70917 C 38.6750 %
378 14-01-2018 00:00:00 2.06917 C 25.5583 %
379 15-01-2018 00:00:00 2.675 C 35.7000 %
380 16-01-2018 00:00:00 5.00167 C 27.7500 %
381 17-01-2018 00:00:00 2.35 C 27.4500 %
382 18-01-2018 00:00:00 4.8775 C 25.4667 %
383 19-01-2018 00:00:00 2.92583 C 27.3750 %
384 20-01-2018 00:00:00 2.10833 C 38.1000 %
385 21-01-2018 00:00:00 1.73917 C 43.8167 %
386 22-01-2018 00:00:00 4.38583 C 45.1083 %
387 23-01-2018 00:00:00 6.65593 C 27.4831 %
388 24-01-2018 00:00:00 10.79316 C 24.5470 %
389 25-01-2018 00:00:00 9.13917 C 43.9750 %
390 26-01-2018 00:00:00 5.89167 C 56.7333 %
391 27-01-2018 00:00:00 4.26583 C 45.6667 %
392 28-01-2018 00:00:00 6.63917 C 22.5333 %
393 29-01-2018 00:00:00 9.275 C 22.7417 %
394 30-01-2018 00:00:00 4.25333 C 35.1167 %
395 31-01-2018 00:00:00 6.62917 C 32.6500 %
396 01-02-2018 00:00:00 2.0675 C 36.1083 %
397 02-02-2018 00:00:00 2.36417 C 31.6667 %
398 03-02-2018 00:00:00 2.65042 C 30.2269 %
399 04-02-2018 00:00:00 0.38667 C 29.6333 %
400 05-02-2018 00:00:00 -0.98583 C 20.2500 %
Sensor: Nr:Datum:Temp:Feuchte:
Aussen-T/F 401 06-02-2018 00:00:00 -1.55167 C 25.9583 %
402 07-02-2018 00:00:00 -0.79667 C 32.3833 %
403 08-02-2018 00:00:00 -3.34333 C 28.9667 %
404 09-02-2018 00:00:00 -2.8975 C 36.1833 %
405 10-02-2018 00:00:00 1.41833 C 24.0167 %
406 11-02-2018 00:00:00 2.22 C 26.3667 %
407 12-02-2018 00:00:00 1.25083 C 34.8917 %
408 13-02-2018 00:00:00 -1.44 C 29.8417 %
409 14-02-2018 00:00:00 -3.14333 C 28.8667 %
410 15-02-2018 00:00:00 0.80417 C 40.6583 %
411 16-02-2018 00:00:00 0.98667 C 60.1667 %
412 17-02-2018 00:00:00 -0.55 C 48.8833 %
413 18-02-2018 00:00:00 -2.16917 C 38.4250 %
414 19-02-2018 00:00:00 0.37083 C 35.6500 %
415 20-02-2018 00:00:00 -0.54083 C 33.3417 %
416 21-02-2018 00:00:00 -0.04917 C 22.5333 %
417 22-02-2018 00:00:00 -1.265 C 21.2167 %
418 23-02-2018 00:00:00 -2.0175 C 20.0000 %
419 24-02-2018 00:00:00 -2.72667 C 20.0000 %
420 25-02-2018 00:00:00 -3.74417 C 20.0000 %
421 26-02-2018 00:00:00 -5.06167 C 20.0000 %
422 27-02-2018 00:00:00 -7.2225 C 20.3500 %
423 28-02-2018 00:00:00 -7.98333 C 20.0000 %
424 01-03-2018 00:00:00 -3.74917 C 20.0000 %
425 02-03-2018 00:00:00 -2.59083 C 20.0917 %
Sensor: Nr:Datum:Temp:Feuchte:
Aussen-T/F 426 03-03-2018 00:00:00 -0.72083 C 28.3583 %
427 04-03-2018 00:00:00 3.2 C 37.8833 %
428 05-03-2018 00:00:00 5.22833 C 42.3583 %
429 06-03-2018 00:00:00 4.25 C 40.7750 %
430 07-03-2018 00:00:00 4.89167 C 43.0333 %
431 08-03-2018 00:00:00 5.66417 C 23.5833 %
432 09-03-2018 00:00:00 4.83667 C 41.9500 %
433 10-03-2018 00:00:00 9.51333 C 45.7833 %
434 11-03-2018 00:00:00 9.60833 C 40.1667 %
435 12-03-2018 00:00:00 9.04083 C 37.0250 %
436 13-03-2018 00:00:00 6.84083 C 24.1083 %
437 14-03-2018 00:00:00 6.32917 C 26.1667 %
438 15-03-2018 00:00:00 5.73833 C 33.0750 %
439 16-03-2018 00:00:00 7.00917 C 47.9667 %
440 17-03-2018 00:00:00 -0.93917 C 20.2583 %
441 18-03-2018 00:00:00 -2.1675 C 20.0000 %
442 19-03-2018 00:00:00 -0.63417 C 20.0000 %
443 20-03-2018 00:00:00 -0.4175 C 20.0167 %
444 21-03-2018 00:00:00 0.5225 C 24.8500 %
445 22-03-2018 00:00:00 2.45417 C 30.2000 %
446 23-03-2018 00:00:00 5.83583 C 38.3250 %
447 24-03-2018 00:00:00 4.74917 C 35.3167 %
448 25-03-2018 00:00:00 4.60522 C 30.4870 %
449 26-03-2018 00:00:00 7.34167 C 20.0250 %
450 27-03-2018 00:00:00 5.52083 C 29.7083 %
Sensor: Nr:Datum:Temp:Feuchte:
Aussen-T/F 451 28-03-2018 00:00:00 8.02667 C 36.4167 %
452 29-03-2018 00:00:00 6.93667 C 20.9833 %
453 30-03-2018 00:00:00 6.38833 C 34.0000 %
454 31-03-2018 00:00:00 7.84583 C 39.4917 %
455 01-04-2018 00:00:00 7.26083 C 20.4250 %
456 02-04-2018 00:00:00 8.7875 C 27.6500 %
457 03-04-2018 00:00:00 13.26583 C 20.0000 %
458 04-04-2018 00:00:00 10.6625 C 24.3500 %
459 05-04-2018 00:00:00 7.485 C 30.3417 %
460 06-04-2018 00:00:00 6.66833 C 35.5583 %
461 07-04-2018 00:00:00 12.16083 C 22.7583 %
462 08-04-2018 00:00:00 14.75333 C 22.3333 %
463 09-04-2018 00:00:00 13.84583 C 24.6917 %
464 10-04-2018 00:00:00 12.68 C 28.0833 %
465 11-04-2018 00:00:00 11.99333 C 34.9833 %
466 12-04-2018 00:00:00 13.34833 C 37.0500 %
467 13-04-2018 00:00:00 9.9075 C 32.0833 %
468 14-04-2018 00:00:00 12.74 C 36.2167 %
469 15-04-2018 00:00:00 14.41667 C 27.2750 %
470 16-04-2018 00:00:00 13.76083 C 31.1917 %
471 17-04-2018 00:00:00 14.02167 C 29.2083 %
472 18-04-2018 00:00:00 15.74583 C 26.0333 %
473 19-04-2018 00:00:00 17.22083 C 26.6000 %
474 20-04-2018 00:00:00 17.00083 C 24.1667 %
475 21-04-2018 00:00:00 18.43667 C 23.5750 %
Sensor: Nr:Datum:Temp:Feuchte:
Aussen-T/F 476 22-04-2018 00:00:00 18.55417 C 25.1083 %
477 23-04-2018 00:00:00 18.66417 C 20.2833 %
478 24-04-2018 00:00:00 14.27333 C 24.2167 %
479 25-04-2018 00:00:00 13.4125 C 21.6750 %
480 26-04-2018 00:00:00 11.21 C 20.0000 %
481 27-04-2018 00:00:00 12.55083 C 22.6167 %
482 28-04-2018 00:00:00 12.6075 C 23.1000 %
483 29-04-2018 00:00:00 14.48167 C 29.9583 %
484 30-04-2018 00:00:00 13.82167 C 24.6083 %
485 01-05-2018 00:00:00 9.82667 C 20.0500 %
486 02-05-2018 00:00:00 9.81083 C 27.0250 %
487 03-05-2018 00:00:00 12.9575 C 23.3250 %
488 04-05-2018 00:00:00 13.49833 C 21.9583 %
489 05-05-2018 00:00:00 15.83583 C 20.0667 %
490 06-05-2018 00:00:00 17.25 C 20.1167 %
491 07-05-2018 00:00:00 17.88167 C 21.1000 %
492 08-05-2018 00:00:00 18.43583 C 22.6667 %
493 09-05-2018 00:00:00 17.19333 C 22.2583 %
494 10-05-2018 00:00:00 14.13917 C 25.9500 %
495 11-05-2018 00:00:00 14.92083 C 27.9167 %
496 12-05-2018 00:00:00 17.0825 C 28.2750 %
497 13-05-2018 00:00:00 14.3425 C 37.0500 %
498 14-05-2018 00:00:00 17.16333 C 35.6750 %
499 15-05-2018 00:00:00 16.0375 C 27.9417 %
500 16-05-2018 00:00:00 15.7475 C 27.4000 %
Sensor: Nr:Datum:Temp:Feuchte:
Aussen-T/F 501 17-05-2018 00:00:00 14.55667 C 23.4833 %
502 18-05-2018 00:00:00 13.17083 C 21.1083 %
503 19-05-2018 00:00:00 13.845 C 23.5250 %
504 20-05-2018 00:00:00 14.06917 C 31.8333 %
505 21-05-2018 00:00:00 17.55333 C 27.4333 %
506 22-05-2018 00:00:00 17.09833 C 29.9833 %
507 23-05-2018 00:00:00 17.23083 C 36.1833 %
508 24-05-2018 00:00:00 17.22083 C 27.4917 %
509 25-05-2018 00:00:00 20.19417 C 26.8083 %
510 26-05-2018 00:00:00 21.1325 C 26.3667 %
511 27-05-2018 00:00:00 20.4375 C 27.6917 %
512 28-05-2018 00:00:00 21.70917 C 33.5833 %
513 29-05-2018 00:00:00 20.88333 C 27.1500 %
514 30-05-2018 00:00:00 21.6725 C 28.2333 %
515 31-05-2018 00:00:00 23.08167 C 20.2750 %
516 01-06-2018 00:00:00 19.3725 C 29.3667 %
517 02-06-2018 00:00:00 19.64917 C 23.6750 %
518 03-06-2018 00:00:00 20.04167 C 24.8250 %
519 04-06-2018 00:00:00 21.5125 C 24.5417 %
520 05-06-2018 00:00:00 21.2475 C 22.2500 %
521 06-06-2018 00:00:00 21.6775 C 24.0000 %
522 07-06-2018 00:00:00 21.58667 C 22.6167 %
523 08-06-2018 00:00:00 21.40167 C 24.3000 %
524 09-06-2018 00:00:00 22.3959 C 23.5984 %
525 10-06-2018 00:00:00 21.64333 C 33.3000 %
Sensor: Nr:Datum:Temp:Feuchte:
Aussen-T/F 526 11-06-2018 00:00:00 19.07083 C 41.7083 %
527 12-06-2018 00:00:00 16.44167 C 37.5250 %
528 13-06-2018 00:00:00 15.1 C 22.7000 %
529 14-06-2018 00:00:00 15.48083 C 30.2917 %
530 15-06-2018 00:00:00 17.9025 C 35.7250 %
531 16-06-2018 00:00:00 20.2775 C 26.1583 %
532 17-06-2018 00:00:00 18.42583 C 22.8083 %
533 18-06-2018 00:00:00 18.235 C 21.9750 %
534 19-06-2018 00:00:00 19.13333 C 25.5583 %
535 20-06-2018 00:00:00 23.4825 C 24.4667 %
536 21-06-2018 00:00:00 18.58 C 22.6500 %
537 22-06-2018 00:00:00 14.12167 C 20.0000 %
538 23-06-2018 00:00:00 14.19167 C 21.2750 %
539 24-06-2018 00:00:00 16.46667 C 22.7833 %
540 25-06-2018 00:00:00 17.57167 C 21.5583 %
541 26-06-2018 00:00:00 18.34083 C 24.8583 %
542 27-06-2018 00:00:00 19.81083 C 24.3333 %
543 28-06-2018 00:00:00 21.28417 C 20.6000 %
544 29-06-2018 00:00:00 24.82417 C 20.0000 %
545 30-06-2018 00:00:00 22.8375 C 20.4583 %
546 01-07-2018 00:00:00 21.52333 C 20.0000 %
547 02-07-2018 00:00:00 21.06583 C 20.0000 %
548 03-07-2018 00:00:00 21.34917 C 20.0000 %
549 04-07-2018 00:00:00 19.00917 C 27.2667 %
550 05-07-2018 00:00:00 19.70667 C 33.6083 %
Sensor: Nr:Datum:Temp:Feuchte:
Aussen-T/F 551 06-07-2018 00:00:00 20.57333 C 25.0417 %
552 07-07-2018 00:00:00 21.3521 C 23.5630 %
553 08-07-2018 00:00:00 20.38417 C 21.0583 %
554 09-07-2018 00:00:00 20.71083 C 21.4167 %
555 10-07-2018 00:00:00 17.5975 C 22.4000 %
556 11-07-2018 00:00:00 16.2875 C 33.6667 %
557 12-07-2018 00:00:00 19.71583 C 32.5000 %
558 13-07-2018 00:00:00 20.13 C 24.9667 %
559 14-07-2018 00:00:00 22.01333 C 24.7500 %
560 15-07-2018 00:00:00 22.10833 C 22.6333 %
561 16-07-2018 00:00:00 23.10667 C 21.7167 %
562 17-07-2018 00:00:00 21.59583 C 20.3583 %
563 18-07-2018 00:00:00 20.9475 C 22.7500 %
564 19-07-2018 00:00:00 21.47667 C 21.5833 %
565 20-07-2018 00:00:00 21.81583 C 20.1917 %
566 21-07-2018 00:00:00 20.94083 C 22.6750 %
567 22-07-2018 00:00:00 22.115 C 25.1500 %
568 23-07-2018 00:00:00 22.98917 C 21.2167 %
569 24-07-2018 00:00:00 24.11417 C 22.5833 %
570 25-07-2018 00:00:00 25.90417 C 20.1583 %
571 26-07-2018 00:00:00 27.54333 C 20.0167 %
572 27-07-2018 00:00:00 26.46167 C 20.0000 %
573 28-07-2018 00:00:00 22.24 C 22.3250 %
574 29-07-2018 00:00:00 23.87667 C 23.3500 %
575 30-07-2018 00:00:00 24.435 C 20.3250 %
Sensor: Nr:Datum:Temp:Feuchte:
Aussen-T/F 576 31-07-2018 00:00:00 25.8025 C 21.1500 %
577 01-08-2018 00:00:00 20.68583 C 32.5500 %
578 02-08-2018 00:00:00 24.12 C 31.7333 %
579 03-08-2018 00:00:00 26.79583 C 20.9083 %
580 04-08-2018 00:00:00 26.84 C 20.0667 %
581 05-08-2018 00:00:00 25.5025 C 20.1667 %
582 06-08-2018 00:00:00 24.4075 C 20.1500 %
583 07-08-2018 00:00:00 26.99333 C 20.0000 %
584 08-08-2018 00:00:00 25.83667 C 20.0000 %
585 09-08-2018 00:00:00 20.8725 C 26.6583 %
586 10-08-2018 00:00:00 18.73667 C 20.8917 %
587 11-08-2018 00:00:00 18.76667 C 20.0000 %
588 12-08-2018 00:00:00 18.38667 C 21.9833 %
589 13-08-2018 00:00:00 17.82083 C 28.9750 %
590 14-08-2018 00:00:00 18.755 C 28.1167 %
591 15-08-2018 00:00:00 19.59583 C 29.0833 %
592 16-08-2018 00:00:00 20.84333 C 28.0000 %
593 17-08-2018 00:00:00 20.11583 C 22.3500 %
594 18-08-2018 00:00:00 19.2675 C 26.3417 %
595 19-08-2018 00:00:00 20.68667 C 23.5250 %
596 20-08-2018 00:00:00 21.20333 C 20.6833 %
597 21-08-2018 00:00:00 22.2425 C 24.3417 %
598 22-08-2018 00:00:00 23.51417 C 22.7667 %
599 23-08-2018 00:00:00 23.22 C 23.0167 %
600 24-08-2018 00:00:00 19.31833 C 20.6583 %
Sensor: Nr:Datum:Temp:Feuchte:
Aussen-T/F 601 25-08-2018 00:00:00 14.65417 C 21.6083 %
602 26-08-2018 00:00:00 13.95083 C 28.0000 %
603 27-08-2018 00:00:00 18.20917 C 20.3667 %
604 28-08-2018 00:00:00 18.39833 C 20.7167 %
605 29-08-2018 00:00:00 17.005 C 30.8917 %
606 30-08-2018 00:00:00 17.4125 C 25.9167 %
607 31-08-2018 00:00:00 15.33167 C 23.6000 %
608 01-09-2018 00:00:00 14.445 C 26.6667 %
609 02-09-2018 00:00:00 14.24833 C 24.8000 %
610 03-09-2018 00:00:00 18.13417 C 22.9917 %
611 04-09-2018 00:00:00 20.0425 C 27.0167 %
612 05-09-2018 00:00:00 20.69 C 25.3083 %
613 06-09-2018 00:00:00 18.0925 C 32.7583 %
614 07-09-2018 00:00:00 15.6675 C 33.8500 %
615 08-09-2018 00:00:00 13.5425 C 30.5333 %
616 09-09-2018 00:00:00 16.80833 C 23.2500 %
617 10-09-2018 00:00:00 17.5025 C 23.9000 %
618 11-09-2018 00:00:00 18.86667 C 26.0333 %
619 12-09-2018 00:00:00 19.03167 C 24.0083 %
620 13-09-2018 00:00:00 16.5775 C 25.7417 %
621 14-09-2018 00:00:00 17.1375 C 25.2000 %
622 15-09-2018 00:00:00 15.17 C 21.0833 %
623 16-09-2018 00:00:00 14.51 C 27.7833 %
624 17-09-2018 00:00:00 16.24583 C 25.3583 %
625 18-09-2018 00:00:00 18.72833 C 26.0000 %
Sensor: Nr:Datum:Temp:Feuchte:
Aussen-T/F 626 19-09-2018 00:00:00 20.545 C 25.3250 %
627 20-09-2018 00:00:00 19.08833 C 26.8417 %
628 21-09-2018 00:00:00 15.91167 C 24.5750 %
629 22-09-2018 00:00:00 12.6825 C 25.6333 %
630 23-09-2018 00:00:00 12.18083 C 47.2250 %
631 24-09-2018 00:00:00 9.66 C 36.3583 %
632 25-09-2018 00:00:00 8.06417 C 42.7083 %
633 26-09-2018 00:00:00 8.5625 C 35.2583 %
634 27-09-2018 00:00:00 10.55833 C 35.5667 %
635 28-09-2018 00:00:00 9.67833 C 43.7167 %
636 29-09-2018 00:00:00 7.75083 C 41.1250 %
637 30-09-2018 00:00:00 7.2475 C 35.9250 %
638 01-10-2018 00:00:00 9.41583 C 29.7833 %
639 02-10-2018 00:00:00 8.87917 C 33.7167 %
640 03-10-2018 00:00:00 11.93917 C 34.0750 %
641 04-10-2018 00:00:00 9.37167 C 38.3000 %
642 05-10-2018 00:00:00 10.05917 C 42.4917 %
643 06-10-2018 00:00:00 12.08583 C 44.5417 %
644 07-10-2018 00:00:00 12.625 C 37.2750 %
645 08-10-2018 00:00:00 9.9775 C 39.4833 %
646 09-10-2018 00:00:00 11.14583 C 44.1500 %
647 10-10-2018 00:00:00 12.71667 C 45.8500 %
648 11-10-2018 00:00:00 13.6775 C 40.8667 %
649 12-10-2018 00:00:00 15.05417 C 38.8667 %
650 13-10-2018 00:00:00 14.68833 C 38.8250 %
Sensor: Nr:Datum:Temp:Feuchte:
Aussen-T/F 651 14-10-2018 00:00:00 13.92083 C 36.1000 %
652 15-10-2018 00:00:00 12.87417 C 37.7167 %
653 16-10-2018 00:00:00 12.0325 C 38.6083 %
654 17-10-2018 00:00:00 12.01333 C 41.5083 %
655 18-10-2018 00:00:00 13.73917 C 38.0333 %
656 19-10-2018 00:00:00 11.66417 C 37.7167 %
657 20-10-2018 00:00:00 10.57167 C 36.9583 %
658 21-10-2018 00:00:00 6.7725 C 44.7500 %
659 22-10-2018 00:00:00 7.16833 C 43.7083 %
660 23-10-2018 00:00:00 8.68 C 39.8083 %
661 24-10-2018 00:00:00 13.58167 C 33.8333 %
662 25-10-2018 00:00:00 12.74667 C 31.1083 %
663 26-10-2018 00:00:00 9.95417 C 28.9917 %
664 27-10-2018 00:00:00 5.7925 C 48.4000 %
665 28-10-2018 00:00:00 5.2 C 33.7840 %
666 29-10-2018 00:00:00 5.97083 C 33.6667 %
667 30-10-2018 00:00:00 5.80583 C 46.3667 %
668 31-10-2018 00:00:00 6.87167 C 39.3333 %
669 01-11-2018 00:00:00 5.49083 C 58.1333 %
670 02-11-2018 00:00:00 8.22333 C 53.4750 %
671 03-11-2018 00:00:00 3.10583 C 60.6667 %
672 04-11-2018 00:00:00 6.64167 C 47.4000 %
673 05-11-2018 00:00:00 9.7725 C 45.3417 %
674 06-11-2018 00:00:00 7.78167 C 57.6917 %
675 07-11-2018 00:00:00 8.4 C 54.3917 %
Sensor: Nr:Datum:Temp:Feuchte:
Aussen-T/F 676 08-11-2018 00:00:00 9.7 C 41.1583 %
677 09-11-2018 00:00:00 8.83167 C 49.0500 %
678 10-11-2018 00:00:00 11.32 C 42.0250 %
679 11-11-2018 00:00:00 11.46583 C 47.7500 %
680 12-11-2018 00:00:00 13.07917 C 44.0417 %
681 13-11-2018 00:00:00 9.75583 C 50.0167 %
682 14-11-2018 00:00:00 5.56917 C 61.4000 %
683 15-11-2018 00:00:00 6.72833 C 38.5000 %
684 16-11-2018 00:00:00 5.12667 C 41.4000 %
685 17-11-2018 00:00:00 1.785 C 48.8667 %
686 18-11-2018 00:00:00 0.80333 C 30.7417 %
687 19-11-2018 00:00:00 2.95833 C 26.3167 %
688 20-11-2018 00:00:00 2.95167 C 25.6167 %
689 21-11-2018 00:00:00 1.93 C 37.9750 %
690 22-11-2018 00:00:00 2.22833 C 39.2750 %
691 23-11-2018 00:00:00 -0.8425 C 54.2583 %
692 24-11-2018 00:00:00 4.05833 C 58.0917 %
693 25-11-2018 00:00:00 5.29 C 56.7917 %
694 26-11-2018 00:00:00 6.09333 C 35.8583 %
695 27-11-2018 00:00:00 3.6075 C 30.9583 %
696 28-11-2018 00:00:00 2.97583 C 45.6917 %
697 29-11-2018 00:00:00 4.98333 C 47.6917 %
698 30-11-2018 00:00:00 6.67167 C 48.6583 %
699 01-12-2018 00:00:00 6.67417 C 47.9750 %
700 02-12-2018 00:00:00 10.59167 C 45.4750 %
Sensor: Nr:Datum:Temp:Feuchte:
Aussen-T/F 701 03-12-2018 00:00:00 11.02333 C 51.1333 %
702 04-12-2018 00:00:00 5.62 C 45.3833 %
703 05-12-2018 00:00:00 3.15546 C 56.8487 %
704 06-12-2018 00:00:00 9.21333 C 47.7750 %
705 07-12-2018 00:00:00 10.71583 C 33.9000 %
706 08-12-2018 00:00:00 7.28083 C 37.2333 %
707 09-12-2018 00:00:00 7.285 C 37.6917 %
708 10-12-2018 00:00:00 3.9825 C 44.3833 %
709 11-12-2018 00:00:00 2.87417 C 51.3500 %
710 12-12-2018 00:00:00 2.0375 C 58.1583 %
711 13-12-2018 00:00:00 0.49 C 37.0417 %
712 14-12-2018 00:00:00 0.48 C 20.9833 %
713 15-12-2018 00:00:00 -0.09083 C 24.2083 %
714 16-12-2018 00:00:00 0.045 C 43.8833 %
715 17-12-2018 00:00:00 3.4775 C 51.8333 %
716 18-12-2018 00:00:00 4.1675 C 41.5083 %
717 19-12-2018 00:00:00 5.75 C 37.3000 %
718 20-12-2018 00:00:00 6.87083 C 39.0583 %
719 21-12-2018 00:00:00 10.1725 C 34.4750 %
720 22-12-2018 00:00:00 9.26167 C 35.0083 %
721 23-12-2018 00:00:00 7.89333 C 46.8500 %
722 24-12-2018 00:00:00 4.10333 C 44.5000 %
723 25-12-2018 00:00:00 1.0625 C 49.8500 %
724 26-12-2018 00:00:00 -1.61083 C 52.7667 %
725 27-12-2018 00:00:00 -0.68583 C 57.2917 %
Sensor: Nr:Datum:Temp:Feuchte:
Aussen-T/F 726 28-12-2018 00:00:00 -0.61667 C 51.7667 %
727 29-12-2018 00:00:00 2.0175 C 45.4833 %
728 30-12-2018 00:00:00 6.73917 C 37.6417 %
729 31-12-2018 00:00:00 6.84917 C 56.5417 %
730 01-01-2019 00:00:00 6.345 C 45.5833 %
731 02-01-2019 00:00:00 2.72417 C 34.2083 %
732 03-01-2019 00:00:00 1.28167 C 47.5833 %
733 04-01-2019 00:00:00 2.41333 C 45.7833 %
734 05-01-2019 00:00:00 5.14417 C 47.4583 %
735 06-01-2019 00:00:00 5.0725 C 44.3083 %
736 07-01-2019 00:00:00 4.8875 C 41.5500 %
737 08-01-2019 00:00:00 5.74917 C 36.7000 %
738 09-01-2019 00:00:00 3.05083 C 34.6917 %
739 10-01-2019 00:00:00 1.36 C 32.5417 %
740 11-01-2019 00:00:00 2.05417 C 54.0417 %
741 12-01-2019 00:00:00 5.01833 C 46.3583 %
742 13-01-2019 00:00:00 6.9225 C 47.7417 %
743 14-01-2019 00:00:00 4.06833 C 43.5667 %
744 15-01-2019 00:00:00 4.06833 C 40.0333 %
745 16-01-2019 00:00:00 4.52583 C 35.3417 %
746 17-01-2019 00:00:00 4.27167 C 37.9583 %
747 18-01-2019 00:00:00 -0.2025 C 49.3250 %
748 19-01-2019 00:00:00 -3.87667 C 48.1333 %
749 20-01-2019 00:00:00 -6.33 C 47.2250 %
750 21-01-2019 00:00:00 -7.505 C 46.8917 %
Sensor: Nr:Datum:Temp:Feuchte:
Aussen-T/F 751 22-01-2019 00:00:00 -5.97917 C 44.1750 %
752 23-01-2019 00:00:00 -2.435 C 39.5667 %
753 24-01-2019 00:00:00 -2.72417 C 26.7667 %
754 25-01-2019 00:00:00 -0.50917 C 39.3333 %
755 26-01-2019 00:00:00 3.62167 C 45.9417 %
756 27-01-2019 00:00:00 4.94833 C 43.1917 %
757 28-01-2019 00:00:00 2.2025 C 45.2417 %
758 29-01-2019 00:00:00 0.865 C 44.1667 %
759 30-01-2019 00:00:00 -0.46833 C 49.8250 %
760 31-01-2019 00:00:00 -1.03333 C 52.2750 %
761 01-02-2019 00:00:00 0.72167 C 56.8333 %
762 02-02-2019 00:00:00 1.59587 C 62.5950 %
763 03-02-2019 00:00:00 1.86583 C 40.0750 %
764 04-02-2019 00:00:00 0.99417 C 40.5833 %
765 05-02-2019 00:00:00 3.66167 C 30.5917 %
766 06-02-2019 00:00:00 0.09417 C 46.8417 %
767 07-02-2019 00:00:00 4.26083 C 38.9917 %
768 08-02-2019 00:00:00 6.77417 C 31.6250 %
769 09-02-2019 00:00:00 8.02083 C 28.8667 %
770 10-02-2019 00:00:00 7.15083 C 39.6167 %
771 11-02-2019 00:00:00 4.03667 C 38.3917 %
772 12-02-2019 00:00:00 3.01917 C 38.2083 %
773 13-02-2019 00:00:00 0.96333 C 46.8167 %
774 14-02-2019 00:00:00 -0.46667 C 51.0250 %
775 15-02-2019 00:00:00 0.9925 C 45.0667 %
Sensor: Nr:Datum:Temp:Feuchte:
Aussen-T/F 776 16-02-2019 00:00:00 1.9325 C 47.3750 %
777 17-02-2019 00:00:00 2.17333 C 49.1333 %
778 18-02-2019 00:00:00 2.31167 C 43.0500 %
779 19-02-2019 00:00:00 4.89 C 40.9750 %
780 20-02-2019 00:00:00 3.7725 C 45.5000 %
781 21-02-2019 00:00:00 5.655 C 46.3667 %
782 22-02-2019 00:00:00 9.27167 C 39.5167 %
783 23-02-2019 00:00:00 4.58167 C 33.2583 %
784 24-02-2019 00:00:00 2.29833 C 32.9417 %
785 25-02-2019 00:00:00 3.65667 C 31.8250 %
786 26-02-2019 00:00:00 4.75583 C 37.6333 %
787 27-02-2019 00:00:00 5.17417 C 38.9250 %
788 28-02-2019 00:00:00 8.185 C 29.8833 %
789 01-03-2019 00:00:00 7.515 C 43.8250 %
790 02-03-2019 00:00:00 8.29333 C 34.1417 %
791 03-03-2019 00:00:00 10.72417 C 28.1417 %
792 04-03-2019 00:00:00 9.1575 C 27.8167 %
793 05-03-2019 00:00:00 6.32167 C 30.8917 %
794 06-03-2019 00:00:00 9.5125 C 32.3667 %
795 07-03-2019 00:00:00 9.61917 C 28.3833 %
796 08-03-2019 00:00:00 7.73167 C 28.8250 %
797 09-03-2019 00:00:00 10.01667 C 26.3333 %
798 10-03-2019 00:00:00 9.11083 C 30.1417 %
799 11-03-2019 00:00:00 4.19667 C 30.2417 %
800 12-03-2019 00:00:00 6.18083 C 27.8583 %
Sensor: Nr:Datum:Temp:Feuchte:
Aussen-T/F 801 13-03-2019 00:00:00 5.6775 C 31.5250 %
802 14-03-2019 00:00:00 6.3325 C 38.0083 %
803 15-03-2019 00:00:00 9.61417 C 37.6917 %
804 16-03-2019 00:00:00 9.76833 C 35.9667 %
805 17-03-2019 00:00:00 8.19083 C 26.8333 %
806 18-03-2019 00:00:00 4.3225 C 36.6583 %
807 19-03-2019 00:00:00 3.115 C 40.3583 %
808 20-03-2019 00:00:00 4.81417 C 37.4250 %
809 21-03-2019 00:00:00 6.76333 C 35.7167 %
810 22-03-2019 00:00:00 8.43083 C 34.0750 %
811 23-03-2019 00:00:00 5.40167 C 40.0083 %
812 24-03-2019 00:00:00 5.90583 C 38.2167 %
813 25-03-2019 00:00:00 4.41583 C 37.7583 %
814 26-03-2019 00:00:00 6.33417 C 32.9583 %
815 27-03-2019 00:00:00 6.36583 C 35.3083 %
816 28-03-2019 00:00:00 6.955 C 36.2417 %
817 29-03-2019 00:00:00 8.44167 C 38.7750 %
818 30-03-2019 00:00:00 10.07583 C 34.1833 %
819 31-03-2019 00:00:00 9.90957 C 33.8174 %
820 01-04-2019 00:00:00 8.9475 C 32.5750 %
821 02-04-2019 00:00:00 10.5425 C 29.3083 %
822 03-04-2019 00:00:00 7.865 C 38.6750 %
823 04-04-2019 00:00:00 5.56833 C 48.7000 %
824 05-04-2019 00:00:00 5.95417 C 48.0167 %
825 06-04-2019 00:00:00 9.88333 C 42.1917 %
Sensor: Nr:Datum:Temp:Feuchte:
Aussen-T/F 826 07-04-2019 00:00:00 11.50833 C 36.8000 %
827 08-04-2019 00:00:00 12.34417 C 33.9167 %
828 09-04-2019 00:00:00 12.00333 C 40.7333 %
829 10-04-2019 00:00:00 10.585 C 23.8417 %
830 11-04-2019 00:00:00 6.52917 C 25.0583 %
831 12-04-2019 00:00:00 4.68167 C 20.0000 %
832 13-04-2019 00:00:00 3.585 C 24.4167 %
833 14-04-2019 00:00:00 5.23833 C 34.7917 %
834 15-04-2019 00:00:00 10.29167 C 25.8000 %
835 16-04-2019 00:00:00 10.91333 C 23.2000 %
836 17-04-2019 00:00:00 12.4 C 35.6083 %
837 18-04-2019 00:00:00 13.7675 C 28.5500 %
838 19-04-2019 00:00:00 14.94917 C 24.5083 %
839 20-04-2019 00:00:00 14.60167 C 27.5833 %
840 21-04-2019 00:00:00 15.24333 C 24.6417 %
841 22-04-2019 00:00:00 14.7825 C 27.5667 %
842 23-04-2019 00:00:00 15.12667 C 20.1083 %
843 24-04-2019 00:00:00 15.10083 C 30.7083 %
844 25-04-2019 00:00:00 13.2425 C 38.0667 %
845 26-04-2019 00:00:00 11.8 C 32.0000 %
846 27-04-2019 00:00:00 9.01583 C 40.3667 %
847 28-04-2019 00:00:00 8.43333 C 30.9750 %
848 29-04-2019 00:00:00 8.62417 C 38.4083 %
849 30-04-2019 00:00:00 13.94583 C 26.0833 %
850 01-05-2019 00:00:00 13.03833 C 29.5000 %
Sensor: Nr:Datum:Temp:Feuchte:
Aussen-T/F 851 02-05-2019 00:00:00 12.08333 C 31.3667 %
852 03-05-2019 00:00:00 11.20833 C 25.1500 %
853 04-05-2019 00:00:00 6.17583 C 33.4500 %
854 05-05-2019 00:00:00 6.66333 C 32.0417 %
855 06-05-2019 00:00:00 7.6075 C 30.6583 %
856 07-05-2019 00:00:00 9.645 C 28.6167 %
857 08-05-2019 00:00:00 9.105 C 38.9750 %
858 09-05-2019 00:00:00 11.085 C 36.9583 %
859 10-05-2019 00:00:00 12.44538 C 33.3866 %
860 11-05-2019 00:00:00 9.52833 C 47.9417 %
861 12-05-2019 00:00:00 9.4 C 31.3083 %
862 13-05-2019 00:00:00 9.985 C 30.9083 %
863 14-05-2019 00:00:00 9.66333 C 26.4333 %
864 15-05-2019 00:00:00 10.57083 C 24.3500 %
865 16-05-2019 00:00:00 10.61167 C 23.0917 %
866 17-05-2019 00:00:00 11.4775 C 39.7250 %
867 18-05-2019 00:00:00 14.67167 C 39.3500 %
868 19-05-2019 00:00:00 15.91083 C 38.3750 %
869 20-05-2019 00:00:00 13.655 C 37.8667 %
870 21-05-2019 00:00:00 11.88167 C 45.6167 %
871 22-05-2019 00:00:00 13.2875 C 33.7833 %
872 23-05-2019 00:00:00 15.22667 C 33.1417 %
873 24-05-2019 00:00:00 17.24 C 28.7500 %
874 25-05-2019 00:00:00 15.89917 C 22.8167 %
875 26-05-2019 00:00:00 16.26667 C 29.2667 %
Sensor: Nr:Datum:Temp:Feuchte:
Aussen-T/F 876 27-05-2019 00:00:00 14.66667 C 40.5417 %
877 28-05-2019 00:00:00 14.29917 C 38.6250 %
878 29-05-2019 00:00:00 15.28667 C 25.9000 %
879 30-05-2019 00:00:00 15.82833 C 28.8250 %
880 31-05-2019 00:00:00 19.45583 C 30.4167 %
881 01-06-2019 00:00:00 20.21917 C 30.3583 %
882 02-06-2019 00:00:00 22.16417 C 30.0500 %
883 03-06-2019 00:00:00 21.1475 C 27.1667 %
884 04-06-2019 00:00:00 21.80333 C 28.3333 %
885 05-06-2019 00:00:00 23.57917 C 22.7833 %
886 06-06-2019 00:00:00 16.14167 C 28.3667 %
887 07-06-2019 00:00:00 16.10083 C 29.5250 %
888 08-06-2019 00:00:00 16.40917 C 20.2667 %
889 09-06-2019 00:00:00 16.72333 C 27.7667 %
890 10-06-2019 00:00:00 19.705 C 23.4750 %
891 11-06-2019 00:00:00 17.38 C 32.4667 %
892 12-06-2019 00:00:00 16.405 C 33.2917 %
893 13-06-2019 00:00:00 16.27917 C 34.4333 %
894 14-06-2019 00:00:00 18.17 C 35.6583 %
895 15-06-2019 00:00:00 19.72583 C 33.0250 %
896 16-06-2019 00:00:00 19.94417 C 24.9167 %
897 17-06-2019 00:00:00 19.5125 C 29.1250 %
898 18-06-2019 00:00:00 22.02333 C 27.1333 %
899 19-06-2019 00:00:00 22.62583 C 27.6917 %
900 20-06-2019 00:00:00 20 C 28.0167 %
Sensor: Nr:Datum:Temp:Feuchte:
Aussen-T/F 901 21-06-2019 00:00:00 19.3425 C 27.3333 %
902 22-06-2019 00:00:00 19.82667 C 26.6167 %
903 23-06-2019 00:00:00 22.3125 C 27.3750 %
904 24-06-2019 00:00:00 24.96167 C 26.2167 %
905 25-06-2019 00:00:00 26.83333 C 24.5583 %
906 26-06-2019 00:00:00 27.635 C 23.0833 %
907 27-06-2019 00:00:00 25.18917 C 20.6083 %
908 28-06-2019 00:00:00 22.44833 C 23.4333 %
909 29-06-2019 00:00:00 24.38417 C 22.1750 %
910 30-06-2019 00:00:00 26.0575 C 22.2333 %
911 01-07-2019 00:00:00 23.3825 C 20.0000 %
912 02-07-2019 00:00:00 19.63333 C 21.8667 %
913 03-07-2019 00:00:00 18.14583 C 22.9833 %
914 04-07-2019 00:00:00 18.95917 C 21.7583 %
915 05-07-2019 00:00:00 21.28 C 20.0000 %
916 06-07-2019 00:00:00 21.86 C 21.2917 %
917 07-07-2019 00:00:00 17.9975 C 24.5833 %
918 08-07-2019 00:00:00 14.77583 C 24.3917 %
919 09-07-2019 00:00:00 15.65583 C 24.6667 %
920 10-07-2019 00:00:00 17.64083 C 24.2083 %
921 11-07-2019 00:00:00 17.65083 C 31.2583 %
922 12-07-2019 00:00:00 17.16583 C 43.6333 %
923 13-07-2019 00:00:00 17.9575 C 34.1250 %
924 14-07-2019 00:00:00 17.12917 C 26.6667 %
925 15-07-2019 00:00:00 16.56667 C 21.0917 %
Sensor: Nr:Datum:Temp:Feuchte:
Aussen-T/F 926 16-07-2019 00:00:00 16.26 C 28.0333 %
927 17-07-2019 00:00:00 17.56833 C 29.2083 %
928 18-07-2019 00:00:00 19.38333 C 28.1917 %
929 19-07-2019 00:00:00 20.12667 C 31.9750 %
930 20-07-2019 00:00:00 21.81667 C 30.3083 %
931 21-07-2019 00:00:00 22.37333 C 25.8833 %
932 22-07-2019 00:00:00 22.7225 C 26.2833 %
933 23-07-2019 00:00:00 25.34083 C 25.5333 %
934 24-07-2019 00:00:00 27.1975 C 24.2750 %
935 25-07-2019 00:00:00 28.90167 C 21.7333 %
936 26-07-2019 00:00:00 27.54417 C 21.2500 %
937 27-07-2019 00:00:00 23.4375 C 26.6833 %
938 28-07-2019 00:00:00 19.93083 C 38.1333 %
939 29-07-2019 00:00:00 21.45583 C 29.3333 %
940 30-07-2019 00:00:00 22.35833 C 26.7167 %
941 31-07-2019 00:00:00 21.48417 C 20.5333 %
942 01-08-2019 00:00:00 19.83417 C 22.9750 %
943 02-08-2019 00:00:00 20.8775 C 22.8500 %
944 03-08-2019 00:00:00 20.77167 C 24.6333 %
945 04-08-2019 00:00:00 21.00667 C 28.3000 %
946 05-08-2019 00:00:00 22.56833 C 24.9167 %
947 06-08-2019 00:00:00 20.0075 C 30.3333 %
948 07-08-2019 00:00:00 19.10167 C 41.3833 %
949 08-08-2019 00:00:00 20.55667 C 30.6417 %
950 09-08-2019 00:00:00 19.73833 C 39.4583 %
Sensor: Nr:Datum:Temp:Feuchte:
Aussen-T/F 951 10-08-2019 00:00:00 20.72917 C 37.6833 %
952 11-08-2019 00:00:00 17.03333 C 35.9000 %
953 12-08-2019 00:00:00 16.51583 C 38.9833 %
954 13-08-2019 00:00:00 16.10833 C 35.2833 %
955 14-08-2019 00:00:00 16.6875 C 34.0417 %
956 15-08-2019 00:00:00 17.20583 C 40.0250 %
957 16-08-2019 00:00:00 17.84 C 34.2250 %
958 17-08-2019 00:00:00 17.89333 C 38.0750 %
959 18-08-2019 00:00:00 19.71833 C 44.5000 %
960 19-08-2019 00:00:00 18.45167 C 33.8417 %
961 20-08-2019 00:00:00 15.91167 C 33.3250 %
962 21-08-2019 00:00:00 16.52917 C 33.4750 %
963 22-08-2019 00:00:00 17.12333 C 32.3667 %
964 23-08-2019 00:00:00 18.31667 C 31.5083 %
965 24-08-2019 00:00:00 19.36333 C 30.9833 %
966 25-08-2019 00:00:00 21.54583 C 29.8917 %
967 26-08-2019 00:00:00 22.17 C 33.4833 %
968 27-08-2019 00:00:00 22.70333 C 35.1667 %
969 28-08-2019 00:00:00 23.4425 C 30.4583 %
970 29-08-2019 00:00:00 22.20333 C 28.3583 %
971 30-08-2019 00:00:00 21.07 C 29.2583 %
972 31-08-2019 00:00:00 21.975 C 30.7583 %
973 01-09-2019 00:00:00 18.8525 C 26.8333 %
974 02-09-2019 00:00:00 15.49333 C 28.2000 %
975 03-09-2019 00:00:00 15.72917 C 28.0833 %
Sensor: Nr:Datum:Temp:Feuchte:
Aussen-T/F 976 04-09-2019 00:00:00 16.9525 C 33.9667 %
977 05-09-2019 00:00:00 15.59 C 26.2917 %
978 06-09-2019 00:00:00 13.58917 C 31.1917 %
979 07-09-2019 00:00:00 12.6975 C 39.5000 %
980 08-09-2019 00:00:00 12.7439 C 48.5935 %
981 09-09-2019 00:00:00 15.23733 C 38.6667 %
982 10-09-2019 00:00:00 12.20486 C 22.8264 %
983 11-09-2019 00:00:00 13.35556 C 20.8472 %
984 12-09-2019 00:00:00 19.325 C 20.0000 %
985 13-09-2019 00:00:00 17.86806 C 20.1111 %
986 14-09-2019 00:00:00 15.93333 C 22.4375 %
987 15-09-2019 00:00:00 15.65694 C 21.2778 %
988 16-09-2019 00:00:00 16.21389 C 20.0000 %
989 17-09-2019 00:00:00 15.87708 C 20.0000 %
990 18-09-2019 00:00:00 11.47361 C 20.7917 %
991 19-09-2019 00:00:00 10.53333 C 21.8194 %
992 20-09-2019 00:00:00 10.80486 C 20.8472 %
993 21-09-2019 00:00:00 12.45278 C 20.6597 %
994 22-09-2019 00:00:00 14.78542 C 20.7500 %
995 23-09-2019 00:00:00 16.6875 C 22.1528 %
996 24-09-2019 00:00:00 13.94306 C 26.6319 %
997 25-09-2019 00:00:00 15.31806 C 25.0417 %
998 26-09-2019 00:00:00 16.10903 C 26.0000 %
999 27-09-2019 00:00:00 16.23333 C 23.7708 %
1000 28-09-2019 00:00:00 15.40208 C 22.5833 %
Sensor: Nr:Datum:Temp:Feuchte:
Aussen-T/F 1001 29-09-2019 00:00:00 16.05972 C 21.6597 %
1002 30-09-2019 00:00:00 15.48194 C 21.1319 %
1003 01-10-2019 00:00:00 15.84375 C 23.4931 %
1004 02-10-2019 00:00:00 12.57569 C 23.6111 %
1005 03-10-2019 00:00:00 9.35625 C 27.6944 %
1006 04-10-2019 00:00:00 10.03681 C 31.8403 %
1007 05-10-2019 00:00:00 10.32986 C 26.5903 %
1008 06-10-2019 00:00:00 7.85764 C 34.1250 %
1009 07-10-2019 00:00:00 9.80764 C 31.8819 %
1010 08-10-2019 00:00:00 12.35833 C 31.0694 %
1011 09-10-2019 00:00:00 11.56667 C 27.7431 %
1012 10-10-2019 00:00:00 11.49097 C 26.2153 %
1013 11-10-2019 00:00:00 12.41458 C 28.8194 %
1014 12-10-2019 00:00:00 13.21111 C 29.6875 %
1015 13-10-2019 00:00:00 16.35417 C 28.4722 %
1016 14-10-2019 00:00:00 15.8125 C 27.6528 %
1017 15-10-2019 00:00:00 13.94028 C 29.8611 %
1018 16-10-2019 00:00:00 12.42153 C 29.2917 %
1019 17-10-2019 00:00:00 14.32708 C 27.4167 %
1020 18-10-2019 00:00:00 12.3125 C 29.7292 %
1021 19-10-2019 00:00:00 12.78194 C 28.2083 %
1022 20-10-2019 00:00:00 13.0875 C 34.7778 %
1023 21-10-2019 00:00:00 13.30486 C 29.2014 %
1024 22-10-2019 00:00:00 11.45 C 27.8819 %
1025 23-10-2019 00:00:00 10.68403 C 31.1181 %
Sensor: Nr:Datum:Temp:Feuchte:
Aussen-T/F 1026 24-10-2019 00:00:00 13.85208 C 27.9236 %
1027 25-10-2019 00:00:00 13.1625 C 24.9444 %
1028 26-10-2019 00:00:00 12.72639 C 27.5417 %
1029 27-10-2019 00:00:00 9.68467 C 30.8733 %
1030 28-10-2019 00:00:00 5.91597 C 35.2014 %
1031 29-10-2019 00:00:00 6.21181 C 29.3264 %
1032 30-10-2019 00:00:00 2.93333 C 34.5347 %
1033 31-10-2019 00:00:00 1.41875 C 34.8333 %
1034 01-11-2019 00:00:00 5.44792 C 36.7292 %
1035 02-11-2019 00:00:00 12.8125 C 27.6458 %
1036 03-11-2019 00:00:00 11.45069 C 29.7639 %
1037 04-11-2019 00:00:00 9.88542 C 30.2153 %
1038 05-11-2019 00:00:00 9.25069 C 27.4306 %
1039 06-11-2019 00:00:00 8.33542 C 34.7014 %
1040 07-11-2019 00:00:00 7.30278 C 33.8333 %
1041 08-11-2019 00:00:00 4.29028 C 37.7153 %
1042 09-11-2019 00:00:00 4.26806 C 33.1111 %
1043 10-11-2019 00:00:00 2.51319 C 34.9861 %
1044 11-11-2019 00:00:00 4.2 C 27.4792 %
1045 12-11-2019 00:00:00 5.41667 C 25.4792 %
1046 13-11-2019 00:00:00 4.93472 C 22.9861 %
1047 14-11-2019 00:00:00 4.86042 C 26.9861 %
1048 15-11-2019 00:00:00 4.08472 C 26.3333 %
1049 16-11-2019 00:00:00 1.19444 C 38.8125 %
1050 17-11-2019 00:00:00 2.39861 C 40.2708 %
Sensor: Nr:Datum:Temp:Feuchte:
Aussen-T/F 1051 18-11-2019 00:00:00 3.51667 C 36.2847 %
1052 19-11-2019 00:00:00 3.06736 C 36.5833 %
1053 20-11-2019 00:00:00 0.75972 C 37.8403 %
1054 21-11-2019 00:00:00 1.18951 C 39.3846 %
1055 22-11-2019 00:00:00 3.65972 C 35.6806 %
1056 23-11-2019 00:00:00 4.64653 C 33.3889 %
1057 24-11-2019 00:00:00 1.99861 C 41.4722 %
1058 25-11-2019 00:00:00 4.16319 C 39.3681 %
1059 26-11-2019 00:00:00 7.75903 C 34.8472 %
1060 27-11-2019 00:00:00 9.72083 C 30.6875 %
1061 28-11-2019 00:00:00 10.55833 C 22.1319 %
1062 29-11-2019 00:00:00 5.75486 C 30.7639 %
1063 30-11-2019 00:00:00 0.48194 C 42.0972 %
1064 01-12-2019 00:00:00 1.14236 C 33.0139 %
1065 02-12-2019 00:00:00 1.20556 C 36.2986 %
1066 03-12-2019 00:00:00 3.97431 C 39.2292 %
1067 04-12-2019 00:00:00 0.41389 C 41.6111 %
1068 05-12-2019 00:00:00 -2.03194 C 42.0972 %
1069 06-12-2019 00:00:00 2.6125 C 34.4722 %
1070 07-12-2019 00:00:00 8.20694 C 27.7292 %
1071 08-12-2019 00:00:00 9.69931 C 24.2778 %
1072 09-12-2019 00:00:00 7.09444 C 23.9722 %
1073 10-12-2019 00:00:00 2.37361 C 34.0000 %
1074 11-12-2019 00:00:00 3.12569 C 39.3056 %
1075 12-12-2019 00:00:00 2.64931 C 37.2500 %
Sensor: Nr:Datum:Temp:Feuchte:
Aussen-T/F 1076 13-12-2019 00:00:00 3.25278 C 34.0069 %
1077 14-12-2019 00:00:00 6.22222 C 28.0625 %
1078 15-12-2019 00:00:00 7.24792 C 30.8958 %
1079 16-12-2019 00:00:00 7.47361 C 39.2986 %
1080 17-12-2019 00:00:00 9.69514 C 31.9653 %
1081 18-12-2019 00:00:00 6.95069 C 37.4792 %
1082 19-12-2019 00:00:00 4.60972 C 40.5417 %
1083 20-12-2019 00:00:00 6.87778 C 35.7847 %
1084 21-12-2019 00:00:00 6.42778 C 32.4306 %
1085 22-12-2019 00:00:00 7.57917 C 31.0556 %
1086 23-12-2019 00:00:00 7.34861 C 28.6111 %
1087 24-12-2019 00:00:00 7.20278 C 29.9097 %
1088 25-12-2019 00:00:00 6.91944 C 32.8333 %
1089 26-12-2019 00:00:00 4.25278 C 40.6250 %
1090 27-12-2019 00:00:00 4.41181 C 36.8819 %
1091 28-12-2019 00:00:00 -1.22431 C 42.5000 %
1092 29-12-2019 00:00:00 -2.07708 C 39.8819 %
1093 30-12-2019 00:00:00 -1.99931 C 39.1319 %
1094 31-12-2019 00:00:00 -0.41736 C 39.5556 %
1095 01-01-2020 00:00:00 -0.10764 C 41.3403 %
Sensor: Nr:Datum:Temp:Feuchte:
G-T/H 1 02-01-2017 00:00:00 5.875 C 67.6500 %
2 03-01-2017 00:00:00 6.26833 C 69.1333 %
3 04-01-2017 00:00:00 6.87333 C 70.5333 %
4 05-01-2017 00:00:00 6.42167 C 64.7417 %
5 06-01-2017 00:00:00 5.2175 C 62.1250 %
6 07-01-2017 00:00:00 5.225 C 61.2333 %
7 08-01-2017 00:00:00 5.37083 C 67.6667 %
8 09-01-2017 00:00:00 5.805 C 70.2583 %
9 10-01-2017 00:00:00 6.215 C 69.9833 %
10 11-01-2017 00:00:00 6.85417 C 73.1167 %
11 12-01-2017 00:00:00 7.36667 C 72.3333 %
12 13-01-2017 00:00:00 7.38917 C 68.9917 %
13 14-01-2017 00:00:00 6.96667 C 66.6000 %
14 15-01-2017 00:00:00 6.63083 C 66.1917 %
15 16-01-2017 00:00:00 5.80917 C 64.9167 %
16 17-01-2017 00:00:00 5.4625 C 65.3000 %
17 18-01-2017 00:00:00 5.16083 C 63.5417 %
18 19-01-2017 00:00:00 4.74667 C 62.7667 %
19 20-01-2017 00:00:00 4.44583 C 61.4250 %
20 21-01-2017 00:00:00 4.46917 C 61.4667 %
21 22-01-2017 00:00:00 6.90667 C 56.2500 %
22 23-01-2017 00:00:00 4.80167 C 59.9750 %
23 24-01-2017 00:00:00 4.74333 C 66.7000 %
24 25-01-2017 00:00:00 5.13697 C 66.5546 %
25 26-01-2017 00:00:00 4.95 C 66.4333 %
Sensor: Nr:Datum:Temp:Feuchte:
G-T/H 26 27-01-2017 00:00:00 4.87667 C 64.0167 %
27 28-01-2017 00:00:00 4.965 C 64.2417 %
28 29-01-2017 00:00:00 5.46167 C 67.2750 %
29 30-01-2017 00:00:00 6.3575 C 70.0750 %
30 31-01-2017 00:00:00 7.135 C 70.9417 %
31 01-02-2017 00:00:00 7.0975 C 69.4500 %
32 02-02-2017 00:00:00 7.63083 C 71.6000 %
33 03-02-2017 00:00:00 7.80583 C 71.7917 %
34 04-02-2017 00:00:00 7.86667 C 73.2833 %
35 05-02-2017 00:00:00 7.52167 C 72.1917 %
36 06-02-2017 00:00:00 7.44667 C 71.3500 %
37 07-02-2017 00:00:00 7.65917 C 69.1583 %
38 08-02-2017 00:00:00 7.745 C 67.0667 %
39 09-02-2017 00:00:00 6.61083 C 60.3750 %
40 10-02-2017 00:00:00 6.26583 C 62.6250 %
41 11-02-2017 00:00:00 6.50167 C 66.3417 %
42 12-02-2017 00:00:00 6.90333 C 69.8583 %
43 13-02-2017 00:00:00 6.77417 C 66.2250 %
44 14-02-2017 00:00:00 6.34667 C 63.3750 %
45 15-02-2017 00:00:00 6.06333 C 64.3167 %
46 16-02-2017 00:00:00 6.4425 C 67.4583 %
47 17-02-2017 00:00:00 7.16417 C 70.9167 %
48 18-02-2017 00:00:00 7.8825 C 71.6500 %
49 19-02-2017 00:00:00 6.91667 C 66.6917 %
50 20-02-2017 00:00:00 7.93417 C 71.2667 %
Sensor: Nr:Datum:Temp:Feuchte:
G-T/H 51 21-02-2017 00:00:00 9.10333 C 73.0000 %
52 22-02-2017 00:00:00 9.84667 C 73.5750 %
53 23-02-2017 00:00:00 10.02917 C 72.3500 %
54 24-02-2017 00:00:00 9.025 C 66.0583 %
55 25-02-2017 00:00:00 7.8125 C 64.1750 %
56 26-02-2017 00:00:00 8.2975 C 69.2667 %
57 27-02-2017 00:00:00 9.63917 C 70.5750 %
58 28-02-2017 00:00:00 9.33 C 66.9583 %
59 01-03-2017 00:00:00 8.60583 C 69.5417 %
60 02-03-2017 00:00:00 8.9175 C 65.6500 %
61 03-03-2017 00:00:00 8.58667 C 65.2583 %
62 04-03-2017 00:00:00 9.72083 C 67.1417 %
63 05-03-2017 00:00:00 9.9025 C 68.5167 %
64 06-03-2017 00:00:00 9.1775 C 69.4333 %
65 07-03-2017 00:00:00 8.97833 C 70.7333 %
66 08-03-2017 00:00:00 8.28333 C 70.1333 %
67 09-03-2017 00:00:00 9.54333 C 71.3083 %
68 10-03-2017 00:00:00 9.94 C 66.3417 %
69 11-03-2017 00:00:00 9.4 C 61.6667 %
70 12-03-2017 00:00:00 9.37083 C 56.6667 %
71 13-03-2017 00:00:00 9.06083 C 61.4333 %
72 14-03-2017 00:00:00 9.58917 C 65.5667 %
73 15-03-2017 00:00:00 10.38083 C 67.1833 %
74 16-03-2017 00:00:00 9.89833 C 64.6750 %
75 17-03-2017 00:00:00 9.92917 C 66.9833 %
Sensor: Nr:Datum:Temp:Feuchte:
G-T/H 76 18-03-2017 00:00:00 10.04833 C 66.3167 %
77 19-03-2017 00:00:00 10.80333 C 69.8417 %
78 20-03-2017 00:00:00 11.3975 C 70.0000 %
79 21-03-2017 00:00:00 11.28667 C 69.3000 %
80 22-03-2017 00:00:00 9.84 C 63.8000 %
81 23-03-2017 00:00:00 10.27083 C 66.0750 %
82 24-03-2017 00:00:00 10.7825 C 62.7500 %
83 25-03-2017 00:00:00 10.76167 C 57.7333 %
84 26-03-2017 00:00:00 10.54783 C 58.5826 %
85 27-03-2017 00:00:00 10.2775 C 50.5417 %
86 28-03-2017 00:00:00 11.49667 C 53.5167 %
87 29-03-2017 00:00:00 12.4025 C 60.0000 %
88 30-03-2017 00:00:00 13.8 C 58.8333 %
89 31-03-2017 00:00:00 13.9 C 55.5083 %
90 01-04-2017 00:00:00 13.5225 C 61.1333 %
91 02-04-2017 00:00:00 13.045 C 62.0500 %
92 03-04-2017 00:00:00 12.37917 C 61.7583 %
93 04-04-2017 00:00:00 11.70917 C 61.7250 %
94 05-04-2017 00:00:00 11.2225 C 60.3000 %
95 06-04-2017 00:00:00 11.25083 C 61.8833 %
96 07-04-2017 00:00:00 11.30833 C 61.5667 %
97 08-04-2017 00:00:00 12.10917 C 64.3167 %
98 09-04-2017 00:00:00 11.93083 C 63.3250 %
99 10-04-2017 00:00:00 12.2625 C 64.3417 %
100 11-04-2017 00:00:00 11.93333 C 61.3750 %
Sensor: Nr:Datum:Temp:Feuchte:
G-T/H 101 12-04-2017 00:00:00 11.73417 C 62.1250 %
102 13-04-2017 00:00:00 12.4775 C 62.8750 %
103 14-04-2017 00:00:00 12.10583 C 60.6583 %
104 15-04-2017 00:00:00 11.93917 C 62.9917 %
105 16-04-2017 00:00:00 11.1475 C 62.5750 %
106 17-04-2017 00:00:00 10.5075 C 62.2583 %
107 18-04-2017 00:00:00 9.84833 C 61.1750 %
108 19-04-2017 00:00:00 9.13917 C 59.2667 %
109 20-04-2017 00:00:00 8.37167 C 53.2417 %
110 21-04-2017 00:00:00 9.44167 C 57.5750 %
111 22-04-2017 00:00:00 10.7925 C 61.3833 %
112 23-04-2017 00:00:00 10.56417 C 59.6333 %
113 24-04-2017 00:00:00 10.66583 C 57.9750 %
114 25-04-2017 00:00:00 11.07395 C 57.7143 %
115 26-04-2017 00:00:00 10.9975 C 52.8000 %
116 27-04-2017 00:00:00 10.80167 C 55.5250 %
117 28-04-2017 00:00:00 9.695 C 54.5000 %
118 29-04-2017 00:00:00 10.51083 C 59.0833 %
119 30-04-2017 00:00:00 11.60583 C 55.6167 %
120 01-05-2017 00:00:00 12.7 C 56.0000 %
121 02-05-2017 00:00:00 11.525 C 63.9432 %
122 03-05-2017 00:00:00 11.48417 C 65.4750 %
123 04-05-2017 00:00:00 12.02333 C 66.8667 %
124 05-05-2017 00:00:00 12.46583 C 66.8917 %
125 06-05-2017 00:00:00 12.505 C 65.2333 %
Sensor: Nr:Datum:Temp:Feuchte:
G-T/H 126 07-05-2017 00:00:00 13.83043 C 67.2696 %
127 08-05-2017 00:00:00 12.83417 C 66.4333 %
128 09-05-2017 00:00:00 12.20583 C 62.3250 %
129 10-05-2017 00:00:00 12.52917 C 54.6833 %
130 11-05-2017 00:00:00 13.12917 C 60.2667 %
131 12-05-2017 00:00:00 14.3375 C 64.2333 %
132 13-05-2017 00:00:00 14.86667 C 65.6583 %
133 14-05-2017 00:00:00 15.34083 C 65.8667 %
134 15-05-2017 00:00:00 16.35667 C 54.4250 %
135 16-05-2017 00:00:00 18.42417 C 50.3083 %
136 17-05-2017 00:00:00 19.76083 C 51.8500 %
137 18-05-2017 00:00:00 18.36833 C 59.9083 %
138 19-05-2017 00:00:00 16.6075 C 64.9333 %
139 20-05-2017 00:00:00 14.935 C 64.1833 %
140 21-05-2017 00:00:00 15.3875 C 58.0667 %
141 22-05-2017 00:00:00 16.8975 C 56.7000 %
142 23-05-2017 00:00:00 17.30167 C 60.5667 %
143 24-05-2017 00:00:00 17.77333 C 59.5750 %
144 25-05-2017 00:00:00 17.38 C 63.0583 %
145 26-05-2017 00:00:00 18.09583 C 61.1583 %
146 27-05-2017 00:00:00 17.95583 C 63.3917 %
147 28-05-2017 00:00:00 18.6625 C 65.0333 %
148 29-05-2017 00:00:00 22.53667 C 59.7333 %
149 30-05-2017 00:00:00 22.135 C 60.5250 %
150 31-05-2017 00:00:00 19.19583 C 54.8917 %
Sensor: Nr:Datum:Temp:Feuchte:
G-T/H 151 01-06-2017 00:00:00 19.02333 C 60.4250 %
152 02-06-2017 00:00:00 19.42667 C 64.1667 %
153 03-06-2017 00:00:00 18.96167 C 68.0500 %
154 04-06-2017 00:00:00 18.245 C 68.2333 %
155 05-06-2017 00:00:00 17.78167 C 63.8583 %
156 06-06-2017 00:00:00 17.53167 C 62.7417 %
157 07-06-2017 00:00:00 16.31 C 63.1083 %
158 08-06-2017 00:00:00 17.10583 C 63.0167 %
159 09-06-2017 00:00:00 17.65833 C 65.4167 %
160 10-06-2017 00:00:00 17.03667 C 64.8083 %
161 11-06-2017 00:00:00 17.98917 C 66.8667 %
162 12-06-2017 00:00:00 20.2225 C 51.9750 %
163 13-06-2017 00:00:00 19.605 C 52.3167 %
164 14-06-2017 00:00:00 20.2375 C 52.8333 %
165 15-06-2017 00:00:00 22.41083 C 52.1917 %
166 16-06-2017 00:00:00 21.05417 C 50.7750 %
167 17-06-2017 00:00:00 19.55083 C 56.9583 %
168 18-06-2017 00:00:00 19.47917 C 61.1333 %
169 19-06-2017 00:00:00 21.37083 C 53.8417 %
170 20-06-2017 00:00:00 23.81417 C 48.4333 %
171 21-06-2017 00:00:00 23.19167 C 55.3333 %
172 22-06-2017 00:00:00 24.54167 C 57.7417 %
173 23-06-2017 00:00:00 23.06 C 57.7583 %
174 24-06-2017 00:00:00 22.64 C 51.3500 %
175 25-06-2017 00:00:00 21.49083 C 54.8583 %
Sensor: Nr:Datum:Temp:Feuchte:
G-T/H 176 26-06-2017 00:00:00 21.5775 C 55.2833 %
177 27-06-2017 00:00:00 20.69417 C 59.6083 %
178 28-06-2017 00:00:00 19.86 C 64.0167 %
179 29-06-2017 00:00:00 19.49417 C 65.1083 %
180 30-06-2017 00:00:00 19.17167 C 60.7667 %
181 01-07-2017 00:00:00 18.81833 C 64.2833 %
182 02-07-2017 00:00:00 18.1925 C 66.6917 %
183 03-07-2017 00:00:00 19.315 C 56.5417 %
184 04-07-2017 00:00:00 20.50083 C 54.7667 %
185 05-07-2017 00:00:00 21.10917 C 57.5583 %
186 06-07-2017 00:00:00 21.4425 C 61.7000 %
187 07-07-2017 00:00:00 21.30333 C 64.3833 %
188 08-07-2017 00:00:00 22.9425 C 56.5250 %
189 09-07-2017 00:00:00 22.685 C 59.5417 %
190 10-07-2017 00:00:00 21.98167 C 63.7417 %
191 11-07-2017 00:00:00 21.20417 C 60.4000 %
192 12-07-2017 00:00:00 20.39167 C 63.4250 %
193 13-07-2017 00:00:00 18.97917 C 57.3833 %
194 14-07-2017 00:00:00 18.96417 C 57.4250 %
195 15-07-2017 00:00:00 18.67083 C 60.6333 %
196 16-07-2017 00:00:00 19.535 C 63.6583 %
197 17-07-2017 00:00:00 19.89917 C 65.6333 %
198 18-07-2017 00:00:00 21.48667 C 62.7583 %
199 19-07-2017 00:00:00 23.825 C 58.2333 %
200 20-07-2017 00:00:00 22.49083 C 62.1083 %
Sensor: Nr:Datum:Temp:Feuchte:
G-T/H 201 21-07-2017 00:00:00 21.79917 C 56.1083 %
202 22-07-2017 00:00:00 22.77167 C 60.8833 %
203 23-07-2017 00:00:00 20.45167 C 59.6000 %
204 24-07-2017 00:00:00 19.83667 C 60.9500 %
205 25-07-2017 00:00:00 18.2725 C 64.9333 %
206 26-07-2017 00:00:00 17.95417 C 67.3667 %
207 27-07-2017 00:00:00 18.53667 C 68.7167 %
208 28-07-2017 00:00:00 18.61833 C 68.6833 %
209 29-07-2017 00:00:00 19.14917 C 68.9333 %
210 30-07-2017 00:00:00 20.87667 C 66.4833 %
211 31-07-2017 00:00:00 21.91167 C 61.1500 %
212 01-08-2017 00:00:00 20.985 C 66.8500 %
213 02-08-2017 00:00:00 21.5925 C 67.6250 %
214 03-08-2017 00:00:00 22.08 C 67.0000 %
215 04-08-2017 00:00:00 21.2975 C 66.9500 %
216 05-08-2017 00:00:00 21.27333 C 64.2583 %
217 06-08-2017 00:00:00 20.1425 C 61.5500 %
218 07-08-2017 00:00:00 19.51083 C 54.8250 %
219 08-08-2017 00:00:00 19.4725 C 62.0000 %
220 09-08-2017 00:00:00 19.2825 C 61.9750 %
221 10-08-2017 00:00:00 18.88083 C 65.6083 %
222 11-08-2017 00:00:00 17.85167 C 68.4083 %
223 12-08-2017 00:00:00 17.38667 C 69.6917 %
224 13-08-2017 00:00:00 17.925 C 70.8917 %
225 14-08-2017 00:00:00 19.18583 C 69.3417 %
Sensor: Nr:Datum:Temp:Feuchte:
G-T/H 226 15-08-2017 00:00:00 19.95167 C 75.4000 %
227 16-08-2017 00:00:00 20.395 C 70.4750 %
228 17-08-2017 00:00:00 20.77833 C 67.9583 %
229 18-08-2017 00:00:00 20.07417 C 69.9500 %
230 19-08-2017 00:00:00 18.63167 C 65.2583 %
231 20-08-2017 00:00:00 18.18833 C 65.5833 %
232 21-08-2017 00:00:00 18.33833 C 61.8250 %
233 22-08-2017 00:00:00 18.3375 C 62.2833 %
234 23-08-2017 00:00:00 19.39 C 63.6250 %
235 24-08-2017 00:00:00 19.39667 C 66.6750 %
236 25-08-2017 00:00:00 19.01417 C 68.4583 %
237 26-08-2017 00:00:00 19.33833 C 70.7917 %
238 27-08-2017 00:00:00 19.525 C 71.7250 %
239 28-08-2017 00:00:00 20.30583 C 68.8833 %
240 29-08-2017 00:00:00 21.09333 C 67.8833 %
241 30-08-2017 00:00:00 20.41167 C 70.1917 %
242 31-08-2017 00:00:00 19.86975 C 70.1176 %
243 01-09-2017 00:00:00 18.04083 C 64.9250 %
244 02-09-2017 00:00:00 17.755 C 68.6500 %
245 03-09-2017 00:00:00 16.90667 C 68.1250 %
246 04-09-2017 00:00:00 16.00917 C 69.3750 %
247 05-09-2017 00:00:00 18.28917 C 72.6000 %
248 06-09-2017 00:00:00 18.70833 C 64.8917 %
249 07-09-2017 00:00:00 17.72833 C 62.5167 %
250 08-09-2017 00:00:00 17.6225 C 64.3417 %
Sensor: Nr:Datum:Temp:Feuchte:
G-T/H 251 09-09-2017 00:00:00 17.3775 C 67.9250 %
252 10-09-2017 00:00:00 16.50417 C 66.3083 %
253 11-09-2017 00:00:00 16.29333 C 68.5500 %
254 12-09-2017 00:00:00 16.13083 C 70.5250 %
255 13-09-2017 00:00:00 15.99917 C 71.1667 %
256 14-09-2017 00:00:00 15.7775 C 71.3250 %
257 15-09-2017 00:00:00 15.14 C 71.7083 %
258 16-09-2017 00:00:00 14.15 C 67.6833 %
259 17-09-2017 00:00:00 14.06833 C 69.8750 %
260 18-09-2017 00:00:00 13.68417 C 70.3917 %
261 19-09-2017 00:00:00 14.2875 C 73.3667 %
262 20-09-2017 00:00:00 14.18167 C 72.9250 %
263 21-09-2017 00:00:00 14.33333 C 68.9000 %
264 22-09-2017 00:00:00 14.20083 C 71.1333 %
265 23-09-2017 00:00:00 14.86583 C 71.6917 %
266 24-09-2017 00:00:00 13.5 C 74.4750 %
267 25-09-2017 00:00:00 14.49667 C 74.4000 %
268 26-09-2017 00:00:00 14.90833 C 74.1417 %
269 27-09-2017 00:00:00 15.24333 C 75.2000 %
270 28-09-2017 00:00:00 15.29833 C 75.7917 %
271 29-09-2017 00:00:00 16.4625 C 76.9750 %
272 30-09-2017 00:00:00 16.51167 C 76.8667 %
273 01-10-2017 00:00:00 15.07167 C 73.4917 %
274 02-10-2017 00:00:00 14.96167 C 75.8333 %
275 03-10-2017 00:00:00 15.05583 C 75.3167 %
Sensor: Nr:Datum:Temp:Feuchte:
G-T/H 276 04-10-2017 00:00:00 14.14417 C 72.4833 %
277 05-10-2017 00:00:00 14.39917 C 74.4417 %
278 06-10-2017 00:00:00 13.515 C 72.0000 %
279 07-10-2017 00:00:00 13.36583 C 74.1000 %
280 08-10-2017 00:00:00 13.59833 C 76.1167 %
281 09-10-2017 00:00:00 13.71417 C 76.4750 %
282 10-10-2017 00:00:00 14.10667 C 77.2250 %
283 11-10-2017 00:00:00 14.48833 C 77.7500 %
284 12-10-2017 00:00:00 14.45833 C 77.2083 %
285 13-10-2017 00:00:00 14.39417 C 77.1167 %
286 14-10-2017 00:00:00 14.55667 C 77.2000 %
287 15-10-2017 00:00:00 14.22167 C 77.1917 %
288 16-10-2017 00:00:00 14.72417 C 80.6250 %
289 17-10-2017 00:00:00 14.50583 C 80.0333 %
290 18-10-2017 00:00:00 14.23 C 79.1833 %
291 19-10-2017 00:00:00 13.8025 C 76.9750 %
292 20-10-2017 00:00:00 14.11261 C 77.8235 %
293 21-10-2017 00:00:00 13.58417 C 75.6250 %
294 22-10-2017 00:00:00 13.64333 C 74.5083 %
295 23-10-2017 00:00:00 13.15167 C 73.8667 %
296 24-10-2017 00:00:00 13.7125 C 77.3167 %
297 25-10-2017 00:00:00 14.60167 C 78.0000 %
298 26-10-2017 00:00:00 14.7325 C 78.0000 %
299 27-10-2017 00:00:00 14.395 C 76.2583 %
300 28-10-2017 00:00:00 13.38917 C 71.6000 %
Sensor: Nr:Datum:Temp:Feuchte:
G-T/H 301 29-10-2017 00:00:00 13.2736 C 70.4000 %
302 30-10-2017 00:00:00 11.94167 C 67.1167 %
303 31-10-2017 00:00:00 11.315 C 67.7083 %
304 01-11-2017 00:00:00 11.75833 C 71.3750 %
305 02-11-2017 00:00:00 11.43667 C 71.0500 %
306 03-11-2017 00:00:00 11.36333 C 71.6167 %
307 04-11-2017 00:00:00 11.05083 C 71.6417 %
308 05-11-2017 00:00:00 11.7925 C 73.8417 %
309 06-11-2017 00:00:00 10.80417 C 68.9083 %
310 07-11-2017 00:00:00 10.16167 C 68.1500 %
311 08-11-2017 00:00:00 10.51583 C 72.8417 %
312 09-11-2017 00:00:00 10.89833 C 74.4833 %
313 10-11-2017 00:00:00 10.70833 C 72.4333 %
314 11-11-2017 00:00:00 10.25917 C 71.3500 %
315 12-11-2017 00:00:00 9.99417 C 71.9333 %
316 13-11-2017 00:00:00 9.82667 C 72.4833 %
317 14-11-2017 00:00:00 9.44833 C 71.5833 %
318 15-11-2017 00:00:00 9.78417 C 73.4833 %
319 16-11-2017 00:00:00 9.8675 C 71.0000 %
320 17-11-2017 00:00:00 10.21917 C 72.6917 %
321 18-11-2017 00:00:00 8.93333 C 68.2833 %
322 19-11-2017 00:00:00 9.44917 C 70.7667 %
323 20-11-2017 00:00:00 9.4175 C 70.1500 %
324 21-11-2017 00:00:00 10.07833 C 73.5833 %
325 22-11-2017 00:00:00 10.72 C 73.9917 %
Sensor: Nr:Datum:Temp:Feuchte:
G-T/H 326 23-11-2017 00:00:00 10.0175 C 71.3000 %
327 24-11-2017 00:00:00 11.32583 C 75.4750 %
328 25-11-2017 00:00:00 10.815 C 70.9083 %
329 26-11-2017 00:00:00 9.25 C 65.7167 %
330 27-11-2017 00:00:00 9.09917 C 68.4083 %
331 28-11-2017 00:00:00 9.38167 C 70.0917 %
332 29-11-2017 00:00:00 8.70583 C 68.4167 %
333 30-11-2017 00:00:00 8.38083 C 67.8167 %
334 01-12-2017 00:00:00 7.8275 C 66.9750 %
335 02-12-2017 00:00:00 6.8025 C 64.3667 %
336 03-12-2017 00:00:00 7.2 C 63.1583 %
337 04-12-2017 00:00:00 7.5275 C 69.7417 %
338 05-12-2017 00:00:00 8.31833 C 73.2750 %
339 06-12-2017 00:00:00 8.98333 C 73.6833 %
340 07-12-2017 00:00:00 8.76667 C 67.2083 %
341 08-12-2017 00:00:00 8.66917 C 66.2417 %
342 09-12-2017 00:00:00 7.4925 C 59.9167 %
343 10-12-2017 00:00:00 7.18333 C 64.1750 %
344 11-12-2017 00:00:00 7.94417 C 72.5667 %
345 12-12-2017 00:00:00 8.19083 C 68.4083 %
346 13-12-2017 00:00:00 7.93917 C 67.1333 %
347 14-12-2017 00:00:00 7.92667 C 69.1000 %
348 15-12-2017 00:00:00 7.94167 C 70.5000 %
349 16-12-2017 00:00:00 7.925 C 71.0833 %
350 17-12-2017 00:00:00 7.8375 C 69.7667 %
Sensor: Nr:Datum:Temp:Feuchte:
G-T/H 351 18-12-2017 00:00:00 7.10333 C 67.6500 %
352 19-12-2017 00:00:00 7.60417 C 70.4667 %
353 20-12-2017 00:00:00 8.29083 C 73.0000 %
354 21-12-2017 00:00:00 9.43333 C 74.8833 %
355 22-12-2017 00:00:00 10.32333 C 75.8833 %
356 23-12-2017 00:00:00 10.45667 C 76.0750 %
357 24-12-2017 00:00:00 10.61417 C 75.9000 %
358 25-12-2017 00:00:00 10.30833 C 71.7667 %
359 26-12-2017 00:00:00 9.0975 C 68.1083 %
360 27-12-2017 00:00:00 8.905 C 71.4083 %
361 28-12-2017 00:00:00 8.96167 C 70.6417 %
362 29-12-2017 00:00:00 14.36852 C 70.8611 %
363 30-12-2017 00:00:00 8.1925 C 73.4750 %
364 31-12-2017 00:00:00 10.73 C 74.9167 %
365 01-01-2018 00:00:00 10.91333 C 70.9167 %
366 02-01-2018 00:00:00 9.93833 C 71.7000 %
367 03-01-2018 00:00:00 9.98417 C 71.9333 %
368 04-01-2018 00:00:00 9.81167 C 73.7667 %
369 05-01-2018 00:00:00 10.06833 C 72.5333 %
370 06-01-2018 00:00:00 9.95417 C 74.1667 %
371 07-01-2018 00:00:00 9.5275 C 72.0083 %
372 08-01-2018 00:00:00 8.9575 C 69.3000 %
373 09-01-2018 00:00:00 8.81583 C 71.4583 %
374 10-01-2018 00:00:00 9.03917 C 73.1917 %
375 11-01-2018 00:00:00 9.4725 C 74.4333 %
Sensor: Nr:Datum:Temp:Feuchte:
G-T/H 376 12-01-2018 00:00:00 9.7375 C 75.0000 %
377 13-01-2018 00:00:00 9.48 C 71.6333 %
378 14-01-2018 00:00:00 8.7325 C 64.1833 %
379 15-01-2018 00:00:00 8.00083 C 65.2500 %
380 16-01-2018 00:00:00 8.6025 C 70.4000 %
381 17-01-2018 00:00:00 8.19 C 66.7833 %
382 18-01-2018 00:00:00 8.2875 C 68.1000 %
383 19-01-2018 00:00:00 8.47333 C 67.2417 %
384 20-01-2018 00:00:00 7.515 C 67.7833 %
385 21-01-2018 00:00:00 7.5275 C 70.9250 %
386 22-01-2018 00:00:00 7.75 C 71.9417 %
387 23-01-2018 00:00:00 8.69492 C 73.4661 %
388 24-01-2018 00:00:00 9.75556 C 74.8120 %
389 25-01-2018 00:00:00 10.6075 C 75.1917 %
390 26-01-2018 00:00:00 10.3125 C 74.1917 %
391 27-01-2018 00:00:00 9.54 C 72.2583 %
392 28-01-2018 00:00:00 9.4625 C 73.1917 %
393 29-01-2018 00:00:00 10.13833 C 74.2667 %
394 30-01-2018 00:00:00 9.76167 C 71.3917 %
395 31-01-2018 00:00:00 9.43 C 72.7083 %
396 01-02-2018 00:00:00 8.55 C 67.8083 %
397 02-02-2018 00:00:00 7.83917 C 68.3833 %
398 03-02-2018 00:00:00 7.98992 C 68.2521 %
399 04-02-2018 00:00:00 7.4 C 63.4333 %
400 05-02-2018 00:00:00 6.47 C 60.2917 %
Sensor: Nr:Datum:Temp:Feuchte:
G-T/H 401 06-02-2018 00:00:00 6.30833 C 61.8333 %
402 07-02-2018 00:00:00 6.2075 C 63.0250 %
403 08-02-2018 00:00:00 5.975 C 61.9833 %
404 09-02-2018 00:00:00 5.43333 C 63.6917 %
405 10-02-2018 00:00:00 6.105 C 66.3083 %
406 11-02-2018 00:00:00 6.99167 C 66.3833 %
407 12-02-2018 00:00:00 7.07833 C 64.5250 %
408 13-02-2018 00:00:00 6.335 C 60.4167 %
409 14-02-2018 00:00:00 5.87917 C 61.6500 %
410 15-02-2018 00:00:00 5.88583 C 66.8833 %
411 16-02-2018 00:00:00 6.29667 C 70.6750 %
412 17-02-2018 00:00:00 6.07083 C 67.1000 %
413 18-02-2018 00:00:00 5.89667 C 66.5500 %
414 19-02-2018 00:00:00 5.89083 C 68.3167 %
415 20-02-2018 00:00:00 6.01 C 66.1333 %
416 21-02-2018 00:00:00 5.89083 C 63.8500 %
417 22-02-2018 00:00:00 5.73333 C 61.2667 %
418 23-02-2018 00:00:00 5.48583 C 60.5583 %
419 24-02-2018 00:00:00 5.12583 C 59.3667 %
420 25-02-2018 00:00:00 4.93667 C 56.8667 %
421 26-02-2018 00:00:00 4.61167 C 55.2417 %
422 27-02-2018 00:00:00 4.5275 C 52.9667 %
423 28-02-2018 00:00:00 4.28667 C 51.9750 %
424 01-03-2018 00:00:00 4.305 C 53.0333 %
425 02-03-2018 00:00:00 4.77417 C 54.7917 %
Sensor: Nr:Datum:Temp:Feuchte:
G-T/H 426 03-03-2018 00:00:00 5.21917 C 60.2833 %
427 04-03-2018 00:00:00 6.01083 C 65.3000 %
428 05-03-2018 00:00:00 7.26 C 67.7083 %
429 06-03-2018 00:00:00 7.275 C 64.2583 %
430 07-03-2018 00:00:00 8.05833 C 67.2083 %
431 08-03-2018 00:00:00 8.30667 C 69.2500 %
432 09-03-2018 00:00:00 8.13 C 70.0750 %
433 10-03-2018 00:00:00 8.92167 C 72.5500 %
434 11-03-2018 00:00:00 10.33 C 74.6417 %
435 12-03-2018 00:00:00 10.33667 C 74.2417 %
436 13-03-2018 00:00:00 10.06083 C 73.3417 %
437 14-03-2018 00:00:00 9.31667 C 70.8667 %
438 15-03-2018 00:00:00 8.67083 C 68.2833 %
439 16-03-2018 00:00:00 9.4175 C 72.0250 %
440 17-03-2018 00:00:00 8.13333 C 61.2417 %
441 18-03-2018 00:00:00 6.64 C 57.5417 %
442 19-03-2018 00:00:00 6.395 C 58.4417 %
443 20-03-2018 00:00:00 6.19167 C 59.8333 %
444 21-03-2018 00:00:00 6.24 C 61.0167 %
445 22-03-2018 00:00:00 6.45333 C 62.8500 %
446 23-03-2018 00:00:00 7.555 C 68.1250 %
447 24-03-2018 00:00:00 7.95833 C 66.2333 %
448 25-03-2018 00:00:00 7.42522 C 63.5130 %
449 26-03-2018 00:00:00 8.47583 C 65.8417 %
450 27-03-2018 00:00:00 8.32583 C 65.0083 %
Sensor: Nr:Datum:Temp:Feuchte:
G-T/H 451 28-03-2018 00:00:00 9.05 C 70.1833 %
452 29-03-2018 00:00:00 9.1875 C 67.9333 %
453 30-03-2018 00:00:00 8.73083 C 65.5333 %
454 31-03-2018 00:00:00 9.3075 C 68.4417 %
455 01-04-2018 00:00:00 9.65917 C 69.4500 %
456 02-04-2018 00:00:00 9.52333 C 68.1000 %
457 03-04-2018 00:00:00 10.725 C 69.7000 %
458 04-04-2018 00:00:00 11.48583 C 70.6333 %
459 05-04-2018 00:00:00 10.94833 C 68.8000 %
460 06-04-2018 00:00:00 9.26167 C 62.4833 %
461 07-04-2018 00:00:00 10.58667 C 62.3917 %
462 08-04-2018 00:00:00 13.47 C 59.0417 %
463 09-04-2018 00:00:00 14.53917 C 57.1667 %
464 10-04-2018 00:00:00 13.77667 C 63.5000 %
465 11-04-2018 00:00:00 13.00917 C 66.6083 %
466 12-04-2018 00:00:00 12.9425 C 66.9917 %
467 13-04-2018 00:00:00 12.73333 C 67.2917 %
468 14-04-2018 00:00:00 13.63417 C 61.7667 %
469 15-04-2018 00:00:00 13.92167 C 65.0333 %
470 16-04-2018 00:00:00 14.52167 C 62.0000 %
471 17-04-2018 00:00:00 14.20333 C 61.1500 %
472 18-04-2018 00:00:00 14.54417 C 62.2333 %
473 19-04-2018 00:00:00 14.79583 C 62.5583 %
474 20-04-2018 00:00:00 15.73333 C 61.3833 %
475 21-04-2018 00:00:00 15.80333 C 63.5083 %
Sensor: Nr:Datum:Temp:Feuchte:
G-T/H 476 22-04-2018 00:00:00 15.78333 C 66.2917 %
477 23-04-2018 00:00:00 17.01667 C 62.7833 %
478 24-04-2018 00:00:00 16.23833 C 56.5917 %
479 25-04-2018 00:00:00 15.21833 C 62.0333 %
480 26-04-2018 00:00:00 13.76 C 51.5583 %
481 27-04-2018 00:00:00 13.61917 C 56.6250 %
482 28-04-2018 00:00:00 13.9325 C 61.2917 %
483 29-04-2018 00:00:00 14.02083 C 64.6000 %
484 30-04-2018 00:00:00 14.6725 C 64.2917 %
485 01-05-2018 00:00:00 13.36417 C 58.0083 %
486 02-05-2018 00:00:00 13.24833 C 56.1500 %
487 03-05-2018 00:00:00 13.77 C 57.8750 %
488 04-05-2018 00:00:00 13.83917 C 58.3750 %
489 05-05-2018 00:00:00 15.43167 C 55.9333 %
490 06-05-2018 00:00:00 15.6825 C 57.6750 %
491 07-05-2018 00:00:00 17.61 C 52.7917 %
492 08-05-2018 00:00:00 18.74917 C 49.1583 %
493 09-05-2018 00:00:00 17.61417 C 55.5167 %
494 10-05-2018 00:00:00 16.74583 C 61.1667 %
495 11-05-2018 00:00:00 15.555 C 63.3500 %
496 12-05-2018 00:00:00 15.79083 C 63.9333 %
497 13-05-2018 00:00:00 16.08833 C 66.4583 %
498 14-05-2018 00:00:00 15.57667 C 68.2083 %
499 15-05-2018 00:00:00 16.8825 C 59.6083 %
500 16-05-2018 00:00:00 16.71333 C 63.0083 %
Sensor: Nr:Datum:Temp:Feuchte:
G-T/H 501 17-05-2018 00:00:00 15.91 C 63.1083 %
502 18-05-2018 00:00:00 15.1975 C 60.7083 %
503 19-05-2018 00:00:00 15.0375 C 63.1750 %
504 20-05-2018 00:00:00 15.13333 C 64.4667 %
505 21-05-2018 00:00:00 16.85667 C 64.3167 %
506 22-05-2018 00:00:00 17.2475 C 65.6333 %
507 23-05-2018 00:00:00 16.85417 C 68.0583 %
508 24-05-2018 00:00:00 16.56417 C 69.4500 %
509 25-05-2018 00:00:00 17.3275 C 69.1583 %
510 26-05-2018 00:00:00 18.92583 C 67.1167 %
511 27-05-2018 00:00:00 18.99167 C 68.2750 %
512 28-05-2018 00:00:00 18.94167 C 69.8667 %
513 29-05-2018 00:00:00 19.4375 C 69.9667 %
514 30-05-2018 00:00:00 19.22417 C 70.2750 %
515 31-05-2018 00:00:00 19.74667 C 69.8500 %
516 01-06-2018 00:00:00 19.70417 C 70.5583 %
517 02-06-2018 00:00:00 19.1175 C 70.5000 %
518 03-06-2018 00:00:00 19.86917 C 66.6000 %
519 04-06-2018 00:00:00 21.16 C 62.4500 %
520 05-06-2018 00:00:00 21.1225 C 62.2500 %
521 06-06-2018 00:00:00 20.28167 C 64.7000 %
522 07-06-2018 00:00:00 20.33167 C 66.7250 %
523 08-06-2018 00:00:00 20.14167 C 68.3250 %
524 09-06-2018 00:00:00 21.14508 C 68.4918 %
525 10-06-2018 00:00:00 20.73583 C 69.4833 %
Sensor: Nr:Datum:Temp:Feuchte:
G-T/H 526 11-06-2018 00:00:00 20.2075 C 70.2833 %
527 12-06-2018 00:00:00 18.93333 C 70.9417 %
528 13-06-2018 00:00:00 17.78333 C 67.8500 %
529 14-06-2018 00:00:00 17.08167 C 65.6167 %
530 15-06-2018 00:00:00 17.87667 C 69.7333 %
531 16-06-2018 00:00:00 19.23167 C 66.0250 %
532 17-06-2018 00:00:00 19.20917 C 66.1250 %
533 18-06-2018 00:00:00 18.5725 C 66.5167 %
534 19-06-2018 00:00:00 19.3025 C 68.1667 %
535 20-06-2018 00:00:00 21.34417 C 62.6417 %
536 21-06-2018 00:00:00 20.40083 C 61.7667 %
537 22-06-2018 00:00:00 18.12583 C 59.1417 %
538 23-06-2018 00:00:00 16.91917 C 60.9000 %
539 24-06-2018 00:00:00 17.08583 C 64.6833 %
540 25-06-2018 00:00:00 17.72833 C 66.0250 %
541 26-06-2018 00:00:00 18.48917 C 62.1583 %
542 27-06-2018 00:00:00 19.815 C 57.9000 %
543 28-06-2018 00:00:00 20.73667 C 53.0667 %
544 29-06-2018 00:00:00 22.01 C 53.8250 %
545 30-06-2018 00:00:00 22.90917 C 48.2667 %
546 01-07-2018 00:00:00 21.50833 C 49.2500 %
547 02-07-2018 00:00:00 21.34083 C 43.1083 %
548 03-07-2018 00:00:00 20.70167 C 49.9250 %
549 04-07-2018 00:00:00 21.1075 C 60.3667 %
550 05-07-2018 00:00:00 21.2225 C 66.7750 %
Sensor: Nr:Datum:Temp:Feuchte:
G-T/H 551 06-07-2018 00:00:00 20.8225 C 63.6917 %
552 07-07-2018 00:00:00 20.45126 C 62.5294 %
553 08-07-2018 00:00:00 20.11833 C 59.9000 %
554 09-07-2018 00:00:00 20.74917 C 55.1417 %
555 10-07-2018 00:00:00 20.3825 C 58.3167 %
556 11-07-2018 00:00:00 18.89583 C 62.6083 %
557 12-07-2018 00:00:00 18.92167 C 65.2500 %
558 13-07-2018 00:00:00 20.39417 C 62.1167 %
559 14-07-2018 00:00:00 20.52583 C 63.2833 %
560 15-07-2018 00:00:00 20.67417 C 63.4333 %
561 16-07-2018 00:00:00 20.8475 C 63.2583 %
562 17-07-2018 00:00:00 20.97167 C 63.0667 %
563 18-07-2018 00:00:00 20.9325 C 59.6167 %
564 19-07-2018 00:00:00 21.11667 C 54.9500 %
565 20-07-2018 00:00:00 21.86917 C 52.9083 %
566 21-07-2018 00:00:00 21.57333 C 58.8500 %
567 22-07-2018 00:00:00 20.75417 C 62.4750 %
568 23-07-2018 00:00:00 22.1575 C 57.9833 %
569 24-07-2018 00:00:00 23.88 C 52.9250 %
570 25-07-2018 00:00:00 24.83333 C 49.4917 %
571 26-07-2018 00:00:00 25.99417 C 48.0750 %
572 27-07-2018 00:00:00 25.445 C 46.9000 %
573 28-07-2018 00:00:00 24.04917 C 55.1667 %
574 29-07-2018 00:00:00 22.61667 C 58.5167 %
575 30-07-2018 00:00:00 24.22583 C 54.8000 %
Sensor: Nr:Datum:Temp:Feuchte:
G-T/H 576 31-07-2018 00:00:00 25.41833 C 51.8250 %
577 01-08-2018 00:00:00 23.80667 C 61.0833 %
578 02-08-2018 00:00:00 23.36417 C 62.3583 %
579 03-08-2018 00:00:00 24.53167 C 58.5333 %
580 04-08-2018 00:00:00 25.9125 C 50.5583 %
581 05-08-2018 00:00:00 24.74417 C 53.5917 %
582 06-08-2018 00:00:00 24.53333 C 49.9583 %
583 07-08-2018 00:00:00 24.12667 C 54.2583 %
584 08-08-2018 00:00:00 24.27667 C 57.4917 %
585 09-08-2018 00:00:00 23.23333 C 60.5250 %
586 10-08-2018 00:00:00 21.49417 C 54.0000 %
587 11-08-2018 00:00:00 20.81667 C 56.0583 %
588 12-08-2018 00:00:00 20.13 C 56.1333 %
589 13-08-2018 00:00:00 20.07083 C 60.5667 %
590 14-08-2018 00:00:00 19.80333 C 63.5000 %
591 15-08-2018 00:00:00 19.82917 C 65.0667 %
592 16-08-2018 00:00:00 19.9875 C 64.3500 %
593 17-08-2018 00:00:00 20.46083 C 64.9583 %
594 18-08-2018 00:00:00 19.96167 C 62.2667 %
595 19-08-2018 00:00:00 19.83667 C 62.1667 %
596 20-08-2018 00:00:00 21.2525 C 62.2667 %
597 21-08-2018 00:00:00 21.17667 C 63.9333 %
598 22-08-2018 00:00:00 21.1725 C 64.1750 %
599 23-08-2018 00:00:00 21.47667 C 64.7000 %
600 24-08-2018 00:00:00 21.1275 C 62.0417 %
Sensor: Nr:Datum:Temp:Feuchte:
G-T/H 601 25-08-2018 00:00:00 19.5075 C 59.1667 %
602 26-08-2018 00:00:00 18.22417 C 55.7083 %
603 27-08-2018 00:00:00 18.48167 C 60.4500 %
604 28-08-2018 00:00:00 18.53833 C 61.2250 %
605 29-08-2018 00:00:00 18.56917 C 62.2417 %
606 30-08-2018 00:00:00 18.82333 C 63.4833 %
607 31-08-2018 00:00:00 18.3025 C 59.8750 %
608 01-09-2018 00:00:00 17.4825 C 59.8917 %
609 02-09-2018 00:00:00 16.9325 C 62.1583 %
610 03-09-2018 00:00:00 18.13333 C 66.0000 %
611 04-09-2018 00:00:00 19.61083 C 66.7083 %
612 05-09-2018 00:00:00 19.59583 C 67.1750 %
613 06-09-2018 00:00:00 19.38917 C 68.3667 %
614 07-09-2018 00:00:00 18.6775 C 67.7917 %
615 08-09-2018 00:00:00 17.10833 C 59.8333 %
616 09-09-2018 00:00:00 17.1975 C 64.7667 %
617 10-09-2018 00:00:00 18.47583 C 60.5250 %
618 11-09-2018 00:00:00 19.45417 C 58.4917 %
619 12-09-2018 00:00:00 18.84083 C 60.8833 %
620 13-09-2018 00:00:00 18.58083 C 66.2167 %
621 14-09-2018 00:00:00 18.04833 C 65.0000 %
622 15-09-2018 00:00:00 17.66667 C 59.8833 %
623 16-09-2018 00:00:00 16.83 C 61.8000 %
624 17-09-2018 00:00:00 17.8475 C 57.0583 %
625 18-09-2018 00:00:00 19.79417 C 56.2333 %
Sensor: Nr:Datum:Temp:Feuchte:
G-T/H 626 19-09-2018 00:00:00 21.03083 C 58.0583 %
627 20-09-2018 00:00:00 20.82 C 55.5500 %
628 21-09-2018 00:00:00 19.29417 C 59.4833 %
629 22-09-2018 00:00:00 17.24917 C 60.5250 %
630 23-09-2018 00:00:00 16.50167 C 65.7500 %
631 24-09-2018 00:00:00 15.14583 C 63.3167 %
632 25-09-2018 00:00:00 13.7275 C 62.7333 %
633 26-09-2018 00:00:00 13.02583 C 63.2917 %
634 27-09-2018 00:00:00 13.0625 C 65.7333 %
635 28-09-2018 00:00:00 13.53583 C 69.5083 %
636 29-09-2018 00:00:00 12.62 C 64.5750 %
637 30-09-2018 00:00:00 11.83417 C 63.4000 %
638 01-10-2018 00:00:00 12.43167 C 68.0167 %
639 02-10-2018 00:00:00 12.47917 C 67.0333 %
640 03-10-2018 00:00:00 13.125 C 70.8750 %
641 04-10-2018 00:00:00 12.85083 C 66.8417 %
642 05-10-2018 00:00:00 13.175 C 68.1250 %
643 06-10-2018 00:00:00 12.79833 C 73.9167 %
644 07-10-2018 00:00:00 14.22167 C 74.0833 %
645 08-10-2018 00:00:00 13.52083 C 69.3917 %
646 09-10-2018 00:00:00 13.39083 C 72.8583 %
647 10-10-2018 00:00:00 13.75333 C 75.3000 %
648 11-10-2018 00:00:00 13.985 C 75.0167 %
649 12-10-2018 00:00:00 14.54333 C 75.8417 %
650 13-10-2018 00:00:00 15.69 C 72.6083 %
Sensor: Nr:Datum:Temp:Feuchte:
G-T/H 651 14-10-2018 00:00:00 15.11667 C 72.1917 %
652 15-10-2018 00:00:00 14.6725 C 73.1583 %
653 16-10-2018 00:00:00 14.08333 C 72.8917 %
654 17-10-2018 00:00:00 13.86667 C 73.4083 %
655 18-10-2018 00:00:00 14.26083 C 74.7500 %
656 19-10-2018 00:00:00 14.28333 C 73.2417 %
657 20-10-2018 00:00:00 14.01833 C 72.8250 %
658 21-10-2018 00:00:00 12.52583 C 67.5917 %
659 22-10-2018 00:00:00 11.7575 C 67.8750 %
660 23-10-2018 00:00:00 11.71417 C 69.2333 %
661 24-10-2018 00:00:00 13.1175 C 73.3417 %
662 25-10-2018 00:00:00 13.88083 C 73.4083 %
663 26-10-2018 00:00:00 13.5375 C 68.0250 %
664 27-10-2018 00:00:00 12.19667 C 65.8417 %
665 28-10-2018 00:00:00 10.9176 C 62.4880 %
666 29-10-2018 00:00:00 10.95583 C 65.6250 %
667 30-10-2018 00:00:00 10.86333 C 67.5167 %
668 31-10-2018 00:00:00 10.8775 C 68.4750 %
669 01-11-2018 00:00:00 10.72083 C 69.2750 %
670 02-11-2018 00:00:00 11.285 C 72.4667 %
671 03-11-2018 00:00:00 10.44 C 67.0750 %
672 04-11-2018 00:00:00 10.265 C 68.6167 %
673 05-11-2018 00:00:00 11.60167 C 72.5750 %
674 06-11-2018 00:00:00 11.5475 C 72.0167 %
675 07-11-2018 00:00:00 11.24083 C 72.4083 %
Sensor: Nr:Datum:Temp:Feuchte:
G-T/H 676 08-11-2018 00:00:00 11.87833 C 74.0333 %
677 09-11-2018 00:00:00 11.62333 C 73.2750 %
678 10-11-2018 00:00:00 12.22833 C 74.7000 %
679 11-11-2018 00:00:00 12.73917 C 75.7833 %
680 12-11-2018 00:00:00 13.255 C 75.6083 %
681 13-11-2018 00:00:00 13.2975 C 75.3417 %
682 14-11-2018 00:00:00 11.54667 C 70.8583 %
683 15-11-2018 00:00:00 11.19417 C 71.8333 %
684 16-11-2018 00:00:00 10.76833 C 68.8833 %
685 17-11-2018 00:00:00 9.25167 C 68.0000 %
686 18-11-2018 00:00:00 8.3775 C 68.4167 %
687 19-11-2018 00:00:00 8.15 C 69.1333 %
688 20-11-2018 00:00:00 8.56667 C 68.8833 %
689 21-11-2018 00:00:00 8.45333 C 69.6833 %
690 22-11-2018 00:00:00 8.65333 C 70.9083 %
691 23-11-2018 00:00:00 7.69667 C 69.4917 %
692 24-11-2018 00:00:00 8.0325 C 72.4750 %
693 25-11-2018 00:00:00 9.05667 C 73.9333 %
694 26-11-2018 00:00:00 9.6625 C 74.3250 %
695 27-11-2018 00:00:00 9.61333 C 72.8000 %
696 28-11-2018 00:00:00 8.91917 C 71.9583 %
697 29-11-2018 00:00:00 9.26083 C 73.8000 %
698 30-11-2018 00:00:00 9.63 C 74.7833 %
699 01-12-2018 00:00:00 9.92417 C 74.6250 %
700 02-12-2018 00:00:00 10.7275 C 75.6167 %
Sensor: Nr:Datum:Temp:Feuchte:
G-T/H 701 03-12-2018 00:00:00 11.87333 C 76.5417 %
702 04-12-2018 00:00:00 11.3275 C 72.0250 %
703 05-12-2018 00:00:00 9.61933 C 69.0504 %
704 06-12-2018 00:00:00 10.40583 C 72.9583 %
705 07-12-2018 00:00:00 11.82917 C 74.0583 %
706 08-12-2018 00:00:00 11.04667 C 70.6667 %
707 09-12-2018 00:00:00 10.81167 C 72.8000 %
708 10-12-2018 00:00:00 10.01083 C 71.3083 %
709 11-12-2018 00:00:00 9.19083 C 71.8583 %
710 12-12-2018 00:00:00 8.70667 C 72.1583 %
711 13-12-2018 00:00:00 8.07083 C 70.1167 %
712 14-12-2018 00:00:00 7.78 C 68.6583 %
713 15-12-2018 00:00:00 7.575 C 68.1083 %
714 16-12-2018 00:00:00 7.33667 C 67.4333 %
715 17-12-2018 00:00:00 7.74583 C 71.2333 %
716 18-12-2018 00:00:00 8.3475 C 72.4667 %
717 19-12-2018 00:00:00 8.60083 C 72.9417 %
718 20-12-2018 00:00:00 9.3175 C 74.0000 %
719 21-12-2018 00:00:00 10.0375 C 74.8333 %
720 22-12-2018 00:00:00 10.99417 C 74.3000 %
721 23-12-2018 00:00:00 10.525 C 74.6917 %
722 24-12-2018 00:00:00 10.26583 C 72.2917 %
723 25-12-2018 00:00:00 8.6825 C 71.1167 %
724 26-12-2018 00:00:00 7.58083 C 70.1333 %
725 27-12-2018 00:00:00 6.98167 C 70.2333 %
Sensor: Nr:Datum:Temp:Feuchte:
G-T/H 726 28-12-2018 00:00:00 6.8575 C 71.5833 %
727 29-12-2018 00:00:00 7.085 C 72.4583 %
728 30-12-2018 00:00:00 8.24 C 74.4417 %
729 31-12-2018 00:00:00 9.18833 C 75.6083 %
730 01-01-2019 00:00:00 9.65583 C 75.8167 %
731 02-01-2019 00:00:00 8.91333 C 73.4000 %
732 03-01-2019 00:00:00 7.65417 C 72.7000 %
733 04-01-2019 00:00:00 7.72667 C 73.7750 %
734 05-01-2019 00:00:00 8.26833 C 74.6083 %
735 06-01-2019 00:00:00 8.8 C 75.9250 %
736 07-01-2019 00:00:00 8.94 C 75.0167 %
737 08-01-2019 00:00:00 9.01833 C 74.5417 %
738 09-01-2019 00:00:00 8.46417 C 73.0417 %
739 10-01-2019 00:00:00 7.90083 C 71.3750 %
740 11-01-2019 00:00:00 7.57167 C 72.1167 %
741 12-01-2019 00:00:00 8.24417 C 74.2500 %
742 13-01-2019 00:00:00 8.91667 C 75.6333 %
743 14-01-2019 00:00:00 9.11083 C 74.7417 %
744 15-01-2019 00:00:00 8.33333 C 74.3833 %
745 16-01-2019 00:00:00 8.5125 C 74.7083 %
746 17-01-2019 00:00:00 8.4975 C 74.5500 %
747 18-01-2019 00:00:00 7.79333 C 72.6583 %
748 19-01-2019 00:00:00 6.99833 C 69.2000 %
749 20-01-2019 00:00:00 6.61083 C 64.8583 %
750 21-01-2019 00:00:00 6.18667 C 61.1750 %
Sensor: Nr:Datum:Temp:Feuchte:
G-T/H 751 22-01-2019 00:00:00 6.04833 C 60.2083 %
752 23-01-2019 00:00:00 6.2575 C 63.4917 %
753 24-01-2019 00:00:00 6.30833 C 65.6583 %
754 25-01-2019 00:00:00 6.2425 C 67.2833 %
755 26-01-2019 00:00:00 6.51833 C 71.7083 %
756 27-01-2019 00:00:00 7.75333 C 73.9667 %
757 28-01-2019 00:00:00 7.77417 C 74.2417 %
758 29-01-2019 00:00:00 7.46167 C 73.9917 %
759 30-01-2019 00:00:00 6.65667 C 69.5667 %
760 31-01-2019 00:00:00 6.54333 C 72.1667 %
761 01-02-2019 00:00:00 6.475 C 73.4167 %
762 02-02-2019 00:00:00 6.70083 C 74.6612 %
763 03-02-2019 00:00:00 6.98667 C 74.3417 %
764 04-02-2019 00:00:00 6.68333 C 73.8083 %
765 05-02-2019 00:00:00 7.12 C 74.5083 %
766 06-02-2019 00:00:00 6.9875 C 73.4333 %
767 07-02-2019 00:00:00 7.0025 C 74.8750 %
768 08-02-2019 00:00:00 7.93833 C 76.1083 %
769 09-02-2019 00:00:00 8.85917 C 76.1583 %
770 10-02-2019 00:00:00 9.2225 C 75.9667 %
771 11-02-2019 00:00:00 8.8125 C 75.1083 %
772 12-02-2019 00:00:00 8.09167 C 74.2167 %
773 13-02-2019 00:00:00 7.47583 C 73.5000 %
774 14-02-2019 00:00:00 6.95583 C 72.5083 %
775 15-02-2019 00:00:00 6.6825 C 71.6250 %
Sensor: Nr:Datum:Temp:Feuchte:
G-T/H 776 16-02-2019 00:00:00 6.53917 C 73.3083 %
777 17-02-2019 00:00:00 6.63667 C 74.1417 %
778 18-02-2019 00:00:00 6.65583 C 74.3000 %
779 19-02-2019 00:00:00 7.19417 C 75.8083 %
780 20-02-2019 00:00:00 7.495 C 75.5500 %
781 21-02-2019 00:00:00 7.76167 C 75.7333 %
782 22-02-2019 00:00:00 9.21417 C 77.2250 %
783 23-02-2019 00:00:00 9.20583 C 74.8917 %
784 24-02-2019 00:00:00 8.01917 C 72.1333 %
785 25-02-2019 00:00:00 7.5975 C 71.6250 %
786 26-02-2019 00:00:00 7.74083 C 71.5500 %
787 27-02-2019 00:00:00 6.63667 C 68.6917 %
788 28-02-2019 00:00:00 8.11917 C 73.1500 %
789 01-03-2019 00:00:00 9.37083 C 74.7583 %
790 02-03-2019 00:00:00 9.69333 C 72.8750 %
791 03-03-2019 00:00:00 10.36917 C 73.5083 %
792 04-03-2019 00:00:00 10.60917 C 73.1083 %
793 05-03-2019 00:00:00 9.71 C 71.6083 %
794 06-03-2019 00:00:00 9.71 C 73.4333 %
795 07-03-2019 00:00:00 10.48417 C 73.6500 %
796 08-03-2019 00:00:00 10.0575 C 72.7250 %
797 09-03-2019 00:00:00 10.17167 C 73.4333 %
798 10-03-2019 00:00:00 10.60917 C 71.4667 %
799 11-03-2019 00:00:00 9.44833 C 67.3667 %
800 12-03-2019 00:00:00 8.92417 C 70.4667 %
Sensor: Nr:Datum:Temp:Feuchte:
G-T/H 801 13-03-2019 00:00:00 9.345 C 71.3250 %
802 14-03-2019 00:00:00 9.13333 C 72.3750 %
803 15-03-2019 00:00:00 10.055 C 74.0583 %
804 16-03-2019 00:00:00 10.57417 C 72.1333 %
805 17-03-2019 00:00:00 9.70583 C 61.2083 %
806 18-03-2019 00:00:00 6.8675 C 62.4667 %
807 19-03-2019 00:00:00 6.02333 C 59.7583 %
808 20-03-2019 00:00:00 7.52333 C 64.5167 %
809 21-03-2019 00:00:00 9.29167 C 60.4917 %
810 22-03-2019 00:00:00 10.14833 C 61.3250 %
811 23-03-2019 00:00:00 10.15917 C 64.7250 %
812 24-03-2019 00:00:00 9.54833 C 67.2167 %
813 25-03-2019 00:00:00 9.15583 C 67.9000 %
814 26-03-2019 00:00:00 9.0525 C 69.7250 %
815 27-03-2019 00:00:00 9.47917 C 69.9333 %
816 28-03-2019 00:00:00 9.49583 C 69.9417 %
817 29-03-2019 00:00:00 10.2825 C 66.2583 %
818 30-03-2019 00:00:00 9.79667 C 60.6083 %
819 31-03-2019 00:00:00 11.2313 C 64.9130 %
820 01-04-2019 00:00:00 11.50333 C 60.3833 %
821 02-04-2019 00:00:00 11.2875 C 63.6333 %
822 03-04-2019 00:00:00 11.49833 C 67.0000 %
823 04-04-2019 00:00:00 10.56333 C 67.8833 %
824 05-04-2019 00:00:00 9.87333 C 68.5417 %
825 06-04-2019 00:00:00 10.76333 C 69.0417 %
Sensor: Nr:Datum:Temp:Feuchte:
G-T/H 826 07-04-2019 00:00:00 11.4925 C 68.0667 %
827 08-04-2019 00:00:00 12.30917 C 70.6833 %
828 09-04-2019 00:00:00 12.2875 C 74.7333 %
829 10-04-2019 00:00:00 12.35917 C 56.9917 %
830 11-04-2019 00:00:00 10.73083 C 48.4917 %
831 12-04-2019 00:00:00 9.57417 C 46.6333 %
832 13-04-2019 00:00:00 9.48583 C 55.2583 %
833 14-04-2019 00:00:00 9.175 C 58.5167 %
834 15-04-2019 00:00:00 10.07667 C 62.0833 %
835 16-04-2019 00:00:00 11.07083 C 62.2083 %
836 17-04-2019 00:00:00 12.33417 C 65.8333 %
837 18-04-2019 00:00:00 13.09417 C 62.0833 %
838 19-04-2019 00:00:00 14.9125 C 51.5500 %
839 20-04-2019 00:00:00 15.6775 C 48.0417 %
840 21-04-2019 00:00:00 16.29 C 47.3167 %
841 22-04-2019 00:00:00 15.22333 C 52.2417 %
842 23-04-2019 00:00:00 15.61417 C 53.2333 %
843 24-04-2019 00:00:00 15.37833 C 59.4167 %
844 25-04-2019 00:00:00 14.5575 C 61.5833 %
845 26-04-2019 00:00:00 14.28667 C 64.1250 %
846 27-04-2019 00:00:00 13.445 C 64.1833 %
847 28-04-2019 00:00:00 12.45 C 64.1833 %
848 29-04-2019 00:00:00 11.95083 C 63.4083 %
849 30-04-2019 00:00:00 13.89833 C 57.8083 %
850 01-05-2019 00:00:00 14.135 C 60.2833 %
Sensor: Nr:Datum:Temp:Feuchte:
G-T/H 851 02-05-2019 00:00:00 13.82333 C 62.1750 %
852 03-05-2019 00:00:00 13.86417 C 59.4750 %
853 04-05-2019 00:00:00 12.72083 C 59.0083 %
854 05-05-2019 00:00:00 11.31667 C 59.7917 %
855 06-05-2019 00:00:00 11.38833 C 61.2833 %
856 07-05-2019 00:00:00 11.88083 C 62.6250 %
857 08-05-2019 00:00:00 11.97 C 62.9333 %
858 09-05-2019 00:00:00 12.35167 C 66.7333 %
859 10-05-2019 00:00:00 12.92101 C 67.6218 %
860 11-05-2019 00:00:00 13.15833 C 68.0833 %
861 12-05-2019 00:00:00 12.12833 C 64.0833 %
862 13-05-2019 00:00:00 12.045 C 60.0000 %
863 14-05-2019 00:00:00 12.31083 C 59.7417 %
864 15-05-2019 00:00:00 12.7725 C 52.9833 %
865 16-05-2019 00:00:00 13.015 C 56.6333 %
866 17-05-2019 00:00:00 13.21917 C 63.1000 %
867 18-05-2019 00:00:00 14.04667 C 66.4250 %
868 19-05-2019 00:00:00 14.825 C 68.0750 %
869 20-05-2019 00:00:00 14.84583 C 68.8000 %
870 21-05-2019 00:00:00 14.15167 C 70.0167 %
871 22-05-2019 00:00:00 13.71167 C 69.7583 %
872 23-05-2019 00:00:00 15.29917 C 61.3750 %
873 24-05-2019 00:00:00 17.54 C 55.6333 %
874 25-05-2019 00:00:00 17.29083 C 56.6250 %
875 26-05-2019 00:00:00 16.44583 C 60.8167 %
Sensor: Nr:Datum:Temp:Feuchte:
G-T/H 876 27-05-2019 00:00:00 16.3925 C 64.3917 %
877 28-05-2019 00:00:00 15.71583 C 66.5333 %
878 29-05-2019 00:00:00 16.0475 C 54.4250 %
879 30-05-2019 00:00:00 15.75417 C 61.4167 %
880 31-05-2019 00:00:00 17.74167 C 65.2667 %
881 01-06-2019 00:00:00 18.025 C 65.0750 %
882 02-06-2019 00:00:00 18.60667 C 66.0917 %
883 03-06-2019 00:00:00 19.92333 C 65.8667 %
884 04-06-2019 00:00:00 19.69667 C 66.1500 %
885 05-06-2019 00:00:00 20.025 C 66.6917 %
886 06-06-2019 00:00:00 19.2775 C 64.1917 %
887 07-06-2019 00:00:00 17.86583 C 60.1250 %
888 08-06-2019 00:00:00 17.565 C 60.2333 %
889 09-06-2019 00:00:00 16.99667 C 61.5667 %
890 10-06-2019 00:00:00 17.96333 C 64.8583 %
891 11-06-2019 00:00:00 18.18333 C 66.3917 %
892 12-06-2019 00:00:00 17.70333 C 67.3917 %
893 13-06-2019 00:00:00 17.89167 C 58.1667 %
894 14-06-2019 00:00:00 19.59083 C 60.6083 %
895 15-06-2019 00:00:00 19.6625 C 64.9917 %
896 16-06-2019 00:00:00 19.56917 C 62.4417 %
897 17-06-2019 00:00:00 19.01167 C 62.8417 %
898 18-06-2019 00:00:00 21.23667 C 58.9250 %
899 19-06-2019 00:00:00 21.53167 C 61.1000 %
900 20-06-2019 00:00:00 20.7375 C 63.5667 %
Sensor: Nr:Datum:Temp:Feuchte:
G-T/H 901 21-06-2019 00:00:00 20.53083 C 52.5000 %
902 22-06-2019 00:00:00 20.16917 C 54.8083 %
903 23-06-2019 00:00:00 21.31917 C 57.1667 %
904 24-06-2019 00:00:00 23.94167 C 55.3000 %
905 25-06-2019 00:00:00 23.93083 C 58.5083 %
906 26-06-2019 00:00:00 24.37417 C 62.9417 %
907 27-06-2019 00:00:00 23.60667 C 60.8333 %
908 28-06-2019 00:00:00 22.21417 C 58.6667 %
909 29-06-2019 00:00:00 24.105 C 45.4667 %
910 30-06-2019 00:00:00 23.46833 C 52.6667 %
911 01-07-2019 00:00:00 23.14417 C 56.9333 %
912 02-07-2019 00:00:00 21.5975 C 49.7667 %
913 03-07-2019 00:00:00 20.46667 C 46.5000 %
914 04-07-2019 00:00:00 20.24 C 44.2750 %
915 05-07-2019 00:00:00 20.99583 C 47.4667 %
916 06-07-2019 00:00:00 21.055 C 53.0250 %
917 07-07-2019 00:00:00 20.39667 C 54.9083 %
918 08-07-2019 00:00:00 18.37167 C 51.1250 %
919 09-07-2019 00:00:00 18.10583 C 49.1417 %
920 10-07-2019 00:00:00 18.91917 C 42.0333 %
921 11-07-2019 00:00:00 18.91167 C 59.7083 %
922 12-07-2019 00:00:00 18.3025 C 73.7917 %
923 13-07-2019 00:00:00 18.47333 C 67.7417 %
924 14-07-2019 00:00:00 18.46917 C 65.0917 %
925 15-07-2019 00:00:00 18.2725 C 59.6250 %
Sensor: Nr:Datum:Temp:Feuchte:
G-T/H 926 16-07-2019 00:00:00 17.95917 C 58.3667 %
927 17-07-2019 00:00:00 18.23667 C 61.2917 %
928 18-07-2019 00:00:00 19.79417 C 58.3083 %
929 19-07-2019 00:00:00 19.79417 C 61.5917 %
930 20-07-2019 00:00:00 19.78583 C 63.8500 %
931 21-07-2019 00:00:00 20.41333 C 63.8583 %
932 22-07-2019 00:00:00 22.33167 C 54.5167 %
933 23-07-2019 00:00:00 22.5225 C 56.8667 %
934 24-07-2019 00:00:00 23.21833 C 58.3417 %
935 25-07-2019 00:00:00 24.345 C 57.0083 %
936 26-07-2019 00:00:00 24.17667 C 57.8500 %
937 27-07-2019 00:00:00 23.54 C 61.3083 %
938 28-07-2019 00:00:00 22.08333 C 64.8167 %
939 29-07-2019 00:00:00 21.58833 C 59.7917 %
940 30-07-2019 00:00:00 21.785 C 58.7750 %
941 31-07-2019 00:00:00 22.4025 C 50.4333 %
942 01-08-2019 00:00:00 21.77083 C 49.7000 %
943 02-08-2019 00:00:00 21.34583 C 55.7750 %
944 03-08-2019 00:00:00 20.90667 C 59.1167 %
945 04-08-2019 00:00:00 20.4525 C 59.4750 %
946 05-08-2019 00:00:00 22.07 C 57.0167 %
947 06-08-2019 00:00:00 21.48083 C 59.7417 %
948 07-08-2019 00:00:00 21.08 C 63.1500 %
949 08-08-2019 00:00:00 20.60333 C 62.6167 %
950 09-08-2019 00:00:00 20.50167 C 64.6000 %
Sensor: Nr:Datum:Temp:Feuchte:
G-T/H 951 10-08-2019 00:00:00 20.38917 C 65.0917 %
952 11-08-2019 00:00:00 19.8725 C 64.3750 %
953 12-08-2019 00:00:00 19.0475 C 65.6000 %
954 13-08-2019 00:00:00 18.645 C 58.8417 %
955 14-08-2019 00:00:00 18.54583 C 57.0833 %
956 15-08-2019 00:00:00 18.91583 C 62.6250 %
957 16-08-2019 00:00:00 18.59917 C 65.5583 %
958 17-08-2019 00:00:00 18.78167 C 67.1583 %
959 18-08-2019 00:00:00 19.07417 C 68.7167 %
960 19-08-2019 00:00:00 19.70167 C 61.8833 %
961 20-08-2019 00:00:00 18.7775 C 58.6500 %
962 21-08-2019 00:00:00 18.37 C 62.6500 %
963 22-08-2019 00:00:00 18.7725 C 58.7167 %
964 23-08-2019 00:00:00 19.34333 C 56.0250 %
965 24-08-2019 00:00:00 19.1825 C 58.5917 %
966 25-08-2019 00:00:00 19.53 C 63.3500 %
967 26-08-2019 00:00:00 21.84417 C 64.5833 %
968 27-08-2019 00:00:00 21.31417 C 66.1667 %
969 28-08-2019 00:00:00 21.07 C 66.6583 %
970 29-08-2019 00:00:00 21.03417 C 66.8417 %
971 30-08-2019 00:00:00 20.6775 C 66.8917 %
972 31-08-2019 00:00:00 20.2775 C 66.5917 %
973 01-09-2019 00:00:00 20.59167 C 65.4167 %
974 02-09-2019 00:00:00 18.59583 C 51.3417 %
975 03-09-2019 00:00:00 16.5475 C 53.5583 %
Sensor: Nr:Datum:Temp:Feuchte:
G-T/H 976 04-09-2019 00:00:00 18.68667 C 56.9667 %
977 05-09-2019 00:00:00 18.34667 C 60.0000 %
978 06-09-2019 00:00:00 17.44333 C 56.1750 %
979 07-09-2019 00:00:00 17.36583 C 60.4417 %
980 08-09-2019 00:00:00 16.54309 C 65.9350 %
981 09-09-2019 00:00:00 16.06067 C 66.7333 %
982 10-09-2019 00:00:00 15.23333 C 63.6597 %
983 11-09-2019 00:00:00 15.74097 C 61.0833 %
984 12-09-2019 00:00:00 17.93194 C 67.6319 %
985 13-09-2019 00:00:00 18.68472 C 70.9653 %
986 14-09-2019 00:00:00 18.01181 C 65.5903 %
987 15-09-2019 00:00:00 17.60347 C 61.9722 %
988 16-09-2019 00:00:00 17.78264 C 60.7361 %
989 17-09-2019 00:00:00 17.67431 C 62.7083 %
990 18-09-2019 00:00:00 15.39444 C 57.2778 %
991 19-09-2019 00:00:00 14.12361 C 57.3125 %
992 20-09-2019 00:00:00 13.22639 C 59.3056 %
993 21-09-2019 00:00:00 15.10833 C 52.5278 %
994 22-09-2019 00:00:00 15.13194 C 59.2083 %
995 23-09-2019 00:00:00 16.27153 C 64.4028 %
996 24-09-2019 00:00:00 16.11528 C 66.2778 %
997 25-09-2019 00:00:00 16.20556 C 67.8681 %
998 26-09-2019 00:00:00 16.33542 C 69.4097 %
999 27-09-2019 00:00:00 16.76458 C 69.3611 %
1000 28-09-2019 00:00:00 16.47083 C 68.9792 %
Sensor: Nr:Datum:Temp:Feuchte:
G-T/H 1001 29-09-2019 00:00:00 16.41458 C 69.6528 %
1002 30-09-2019 00:00:00 16.64236 C 66.7917 %
1003 01-10-2019 00:00:00 16.54167 C 68.3542 %
1004 02-10-2019 00:00:00 16.15694 C 67.3056 %
1005 03-10-2019 00:00:00 14.67222 C 66.7361 %
1006 04-10-2019 00:00:00 14.15556 C 70.1319 %
1007 05-10-2019 00:00:00 14.31875 C 71.1667 %
1008 06-10-2019 00:00:00 13.69306 C 70.7847 %
1009 07-10-2019 00:00:00 13.58056 C 72.7153 %
1010 08-10-2019 00:00:00 14.14097 C 74.1597 %
1011 09-10-2019 00:00:00 14.23472 C 74.0486 %
1012 10-10-2019 00:00:00 14.00139 C 74.0278 %
1013 11-10-2019 00:00:00 13.98819 C 74.3333 %
1014 12-10-2019 00:00:00 14.71181 C 71.7639 %
1015 13-10-2019 00:00:00 15.13472 C 74.9097 %
1016 14-10-2019 00:00:00 16.34722 C 74.3958 %
1017 15-10-2019 00:00:00 15.98125 C 73.6597 %
1018 16-10-2019 00:00:00 15.42708 C 73.2986 %
1019 17-10-2019 00:00:00 15.28056 C 74.7292 %
1020 18-10-2019 00:00:00 15.18681 C 74.6042 %
1021 19-10-2019 00:00:00 14.72222 C 74.1944 %
1022 20-10-2019 00:00:00 14.40278 C 81.1597 %
1023 21-10-2019 00:00:00 14.60625 C 80.9028 %
1024 22-10-2019 00:00:00 14.62153 C 77.5000 %
1025 23-10-2019 00:00:00 14.00764 C 76.3542 %
Sensor: Nr:Datum:Temp:Feuchte:
G-T/H 1026 24-10-2019 00:00:00 14.52986 C 78.0139 %
1027 25-10-2019 00:00:00 15.10694 C 74.8681 %
1028 26-10-2019 00:00:00 14.99028 C 74.2153 %
1029 27-10-2019 00:00:00 14.43933 C 74.9333 %
1030 28-10-2019 00:00:00 12.81389 C 71.1806 %
1031 29-10-2019 00:00:00 12.35556 C 71.6389 %
1032 30-10-2019 00:00:00 10.98611 C 65.8194 %
1033 31-10-2019 00:00:00 9.49097 C 64.1736 %
1034 01-11-2019 00:00:00 9.67014 C 69.2569 %
1035 02-11-2019 00:00:00 12.01181 C 74.2222 %
1036 03-11-2019 00:00:00 12.91806 C 75.4861 %
1037 04-11-2019 00:00:00 12.97569 C 75.6250 %
1038 05-11-2019 00:00:00 12.58194 C 75.9444 %
1039 06-11-2019 00:00:00 12.33194 C 75.6528 %
1040 07-11-2019 00:00:00 12.18403 C 75.3403 %
1041 08-11-2019 00:00:00 11.13611 C 70.1181 %
1042 09-11-2019 00:00:00 11.02014 C 69.0972 %
1043 10-11-2019 00:00:00 9.95556 C 68.3056 %
1044 11-11-2019 00:00:00 9.96458 C 71.2708 %
1045 12-11-2019 00:00:00 10.11458 C 72.0972 %
1046 13-11-2019 00:00:00 10.0125 C 72.4097 %
1047 14-11-2019 00:00:00 9.73403 C 68.3958 %
1048 15-11-2019 00:00:00 9.68819 C 69.4028 %
1049 16-11-2019 00:00:00 9.6125 C 68.7083 %
1050 17-11-2019 00:00:00 9.03819 C 69.9306 %
Sensor: Nr:Datum:Temp:Feuchte:
G-T/H 1051 18-11-2019 00:00:00 9.47361 C 72.2500 %
1052 19-11-2019 00:00:00 9.40903 C 72.0833 %
1053 20-11-2019 00:00:00 8.93333 C 71.1181 %
1054 21-11-2019 00:00:00 8.40559 C 70.8182 %
1055 22-11-2019 00:00:00 8.70556 C 72.6736 %
1056 23-11-2019 00:00:00 9.32569 C 73.0972 %
1057 24-11-2019 00:00:00 9.08333 C 72.0764 %
1058 25-11-2019 00:00:00 9.04375 C 73.5069 %
1059 26-11-2019 00:00:00 9.85139 C 74.9375 %
1060 27-11-2019 00:00:00 10.87847 C 75.9236 %
1061 28-11-2019 00:00:00 11.51597 C 75.5069 %
1062 29-11-2019 00:00:00 11.25208 C 72.3542 %
1063 30-11-2019 00:00:00 9.66736 C 68.9097 %
1064 01-12-2019 00:00:00 8.81806 C 70.1806 %
1065 02-12-2019 00:00:00 8.35278 C 70.5417 %
1066 03-12-2019 00:00:00 8.74514 C 73.3472 %
1067 04-12-2019 00:00:00 8.79375 C 71.8403 %
1068 05-12-2019 00:00:00 7.92014 C 69.1458 %
1069 06-12-2019 00:00:00 7.57292 C 70.7014 %
1070 07-12-2019 00:00:00 8.97014 C 74.4514 %
1071 08-12-2019 00:00:00 10.25694 C 75.1667 %
1072 09-12-2019 00:00:00 10.48403 C 74.1111 %
1073 10-12-2019 00:00:00 9.34028 C 71.5903 %
1074 11-12-2019 00:00:00 8.75694 C 73.1250 %
1075 12-12-2019 00:00:00 8.81042 C 73.2500 %
Sensor: Nr:Datum:Temp:Feuchte:
G-T/H 1076 13-12-2019 00:00:00 8.51944 C 72.1458 %
1077 14-12-2019 00:00:00 8.92153 C 73.0764 %
1078 15-12-2019 00:00:00 9.56736 C 74.6667 %
1079 16-12-2019 00:00:00 9.90486 C 75.1389 %
1080 17-12-2019 00:00:00 10.43333 C 75.4583 %
1081 18-12-2019 00:00:00 10.925 C 75.4861 %
1082 19-12-2019 00:00:00 9.76667 C 73.6667 %
1083 20-12-2019 00:00:00 9.69375 C 75.0208 %
1084 21-12-2019 00:00:00 10.06458 C 74.5833 %
1085 22-12-2019 00:00:00 10.1375 C 75.1528 %
1086 23-12-2019 00:00:00 10.30417 C 75.3681 %
1087 24-12-2019 00:00:00 10.12639 C 74.9375 %
1088 25-12-2019 00:00:00 10.24444 C 75.9653 %
1089 26-12-2019 00:00:00 9.92708 C 75.2569 %
1090 27-12-2019 00:00:00 9.69444 C 75.5833 %
1091 28-12-2019 00:00:00 8.37639 C 70.3194 %
1092 29-12-2019 00:00:00 7.21528 C 69.6875 %
1093 30-12-2019 00:00:00 7.16944 C 69.0486 %
1094 31-12-2019 00:00:00 6.93194 C 69.9722 %
1095 01-01-2020 00:00:00 7.23125 C 70.8403 %

Maximal/Minimal-Werte vom 02.01.2017 - 01.01.2020

Sensor Min Max Avg
Temp
(Aussen-T/F)
-12.4 °C
22-01-2017  07:59:17
46.2 °C
19-06-2017  18:30:17
11.06 °C
Feuchte
(Aussen-T/F)
20 %
04-01-2017  12:10:17
78 %
23-11-2017  06:30:17
32.37 %
Temp
(G-T/H)
2 °C
27-02-2018  07:01:17
29.7 °C
26-07-2018  16:25:17
13.57 °C
Feuchte
(G-T/H)
25 %
29-06-2019  18:04:17
85 %
16-10-2017  15:03:17
66.2 %

Die Daten stammen von einer Davis Vantage Pro 2 Wetter-Station und werden unter Linux mit der Software wview2wettercgi und aufbereitet. Alle Angaben erfolgen ohne Gewähr für ihre Vollständigkeit oder Richtigkeit.
Kontakt: Rainer Krienke krienke@uni-koblenz.de . Meine Webseiten an der Uni Koblenz oder privat.
Version: $Revision: 0.78 $